GEFSGL_500_meanwind_042.txt.gz
Wind_Speed
58 57 55 52 49 47 45 43 42 40 39 38 36 34 33 33 33 35 37 40 41 42 42 42 42 43 45 50 58 67 75 81 85 85 84 84 84 84 82 80 77 76 75
58 57 54 51 49 46 45 43 43 42 41 39 37 36 34 32 32 33 35 37 39 41 42 42 42 43 44 46 51 57 65 73 80 82 83 84 85 85 84 83 80 78 77
58 56 54 51 49 47 46 46 45 45 44 42 40 38 36 34 33 32 33 35 37 40 41 43 42 42 43 44 47 51 57 64 72 77 78 80 82 84 84 84 83 81 79
58 56 54 52 50 49 48 49 49 48 47 45 43 41 39 37 35 33 33 33 35 38 40 42 43 43 43 43 45 48 51 56 62 69 72 75 78 81 82 83 82 82 81
58 56 55 52 52 51 51 51 52 52 51 50 48 46 43 40 38 36 34 33 33 36 38 41 43 44 44 43 44 45 47 50 54 59 64 68 72 76 78 80 80 80 81
58 57 55 53 53 53 54 54 55 55 54 53 51 47 43 41 39 38 36 34 33 35 37 40 42 44 44 44 43 44 45 46 49 52 55 59 64 69 73 75 77 78 79
58 57 56 55 55 55 56 58 58 58 57 55 49 43 38 35 35 36 37 35 33 34 36 38 41 44 45 44 44 44 43 44 46 47 49 51 55 60 64 68 71 73 74
58 58 57 57 57 57 59 60 61 61 59 52 45 37 30 25 24 28 33 34 33 33 34 36 39 42 44 45 45 44 43 43 43 44 45 46 48 52 56 60 63 66 68
58 59 59 58 59 59 61 62 63 62 58 51 43 33 23 15 14 19 25 28 30 31 32 34 38 41 43 45 45 45 44 43 43 42 42 42 43 46 50 54 58 60 62
59 59 60 60 60 61 62 64 65 63 59 52 42 30 19 9 7 12 18 22 24 26 28 31 35 39 42 44 45 45 44 43 43 42 41 40 41 42 45 49 52 54 57
58 60 61 61 61 62 63 64 65 64 59 52 41 30 19 7 3 8 11 15 18 21 24 28 33 37 40 42 44 45 44 44 43 42 40 39 39 40 42 46 49 51 54
58 59 60 61 62 62 63 64 65 64 60 54 43 31 20 11 3 2 5 8 13 17 21 25 30 34 38 40 43 45 45 45 44 44 42 40 39 39 41 44 47 48 51
57 58 59 61 62 62 63 64 64 65 62 57 48 36 25 15 8 3 1 5 8 13 18 22 26 31 35 38 42 44 45 45 46 45 45 43 41 41 42 44 46 49 50
56 57 58 59 61 62 63 64 64 65 63 59 53 42 31 22 14 7 3 1 5 9 13 17 22 27 32 36 40 43 45 46 47 47 47 46 44 44 44 45 46 48 50
55 56 57 58 60 61 63 64 65 65 64 61 57 50 40 29 20 13 7 3 2 5 10 14 18 23 28 33 38 41 44 46 47 48 48 48 47 46 47 46 46 47 49
53 54 55 57 59 60 61 63 64 64 63 61 58 54 48 39 30 21 14 8 4 3 7 11 15 19 24 30 35 39 42 45 47 49 49 50 49 49 49 48 47 47 47
51 52 54 56 57 59 60 60 61 62 62 61 59 55 52 47 40 32 23 16 10 6 5 8 12 16 20 26 31 36 40 44 47 49 50 51 51 51 50 49 49 48 48
50 51 53 54 56 57 58 59 59 60 61 60 59 57 53 50 46 42 35 27 18 12 8 7 9 13 17 22 28 34 38 42 45 48 50 51 52 52 51 50 50 50 49
48 49 51 52 54 56 57 58 58 59 59 59 58 57 55 52 49 46 42 37 31 22 15 9 8 10 14 18 23 30 36 40 44 47 49 51 52 52 52 52 51 50 50
47 48 49 51 52 54 55 56 57 57 57 58 58 57 55 53 50 48 46 42 38 33 26 19 11 8 10 15 20 25 32 38 42 45 48 50 52 52 52 53 52 51 51
45 46 48 49 50 52 53 54 55 55 56 57 57 57 56 54 52 49 47 45 42 38 34 28 22 14 9 10 15 21 27 34 39 43 46 49 51 52 52 53 53 53 52
44 45 46 47 49 50 51 52 53 54 55 55 56 56 56 55 53 51 48 46 44 41 38 34 29 23 16 9 9 15 22 28 35 40 44 47 50 51 52 52 53 53 53
43 44 45 46 47 49 50 50 51 52 53 54 55 55 55 55 54 53 50 48 45 43 40 37 34 29 24 17 10 7 14 22 29 35 41 45 48 50 52 52 52 52 53
43 43 44 45 46 47 48 49 50 51 52 53 54 54 54 54 54 53 52 50 47 44 42 39 37 33 29 24 17 10 6 12 21 29 36 41 45 48 51 52 52 51 51
42 43 43 44 44 45 46 47 48 49 50 51 52 53 54 54 54 53 53 51 48 46 43 40 38 35 32 28 23 17 10 6 11 20 29 35 41 46 49 51 52 52 51
40 42 43 43 43 44 45 45 46 47 48 49 50 51 51 52 53 53 52 52 50 48 45 42 39 37 34 31 27 22 16 10 6 11 20 28 35 41 46 49 51 52 52

GEFSGL_500_meanwind_048.txt.gz
Wind_Speed
61 60 60 59 58 57 56 54 54 53 52 52 51 50 48 46 45 43 41 39 37 36 36 39 42 47 51 55 58 59 59 59 62 71 78 81 85 87 89 90 89 86 84
60 60 59 59 58 58 57 56 56 56 55 55 54 51 48 46 45 45 44 41 39 37 37 37 40 43 47 52 55 57 57 57 58 65 74 79 81 81 85 87 86 86 84
60 59 59 59 59 58 58 58 58 58 58 57 53 50 45 41 39 40 41 42 41 39 37 37 38 40 44 48 52 54 55 55 55 59 70 77 79 79 81 83 85 86 84
59 59 59 59 59 59 59 60 61 61 60 57 52 46 39 34 31 30 33 37 39 39 38 37 37 38 41 45 49 52 52 53 53 54 64 75 80 80 79 80 82 84 84
59 59 59 59 60 60 61 62 63 63 62 56 48 40 34 28 22 20 22 27 32 35 35 36 37 37 39 42 46 49 50 50 50 50 57 69 79 83 82 79 79 82 84
58 58 58 59 60 61 62 64 65 64 62 55 46 37 30 24 19 13 13 17 23 28 31 33 35 37 38 40 43 46 48 48 48 48 51 61 74 84 85 83 80 80 81
57 57 58 60 61 61 63 64 66 65 62 55 46 36 28 25 20 12 6 7 15 21 25 28 31 34 36 38 41 44 45 45 46 46 47 53 65 78 84 83 82 80 81
56 57 58 59 60 61 63 64 66 66 62 56 47 37 29 25 21 15 7 1 9 16 20 23 26 30 34 36 39 41 42 43 43 43 43 47 55 68 79 83 82 80 80
55 56 57 59 60 61 62 64 65 65 63 58 50 41 32 26 22 16 8 3 7 12 17 20 24 27 31 34 36 39 40 41 41 41 42 43 48 57 69 77 80 79 78
55 56 57 58 59 60 62 64 65 65 64 60 54 45 36 30 24 18 11 5 6 10 14 18 22 25 28 31 34 36 38 39 39 39 40 41 43 48 57 67 73 75 75
54 56 57 57 58 60 62 63 65 65 64 61 57 51 42 33 27 21 14 7 5 7 11 15 18 22 24 28 31 34 37 38 38 38 38 40 41 44 48 57 64 69 71
53 55 56 57 57 58 60 61 63 63 63 61 58 54 48 40 31 24 17 10 4 4 8 12 16 20 22 26 29 32 35 36 37 37 37 39 41 42 44 49 55 60 64
52 53 54 56 56 57 58 59 60 61 61 61 59 55 52 47 39 30 22 15 8 1 4 9 13 17 20 24 27 31 34 35 36 36 37 38 39 41 43 45 49 53 56
51 51 52 54 55 55 56 57 58 59 59 60 59 57 54 50 46 39 30 22 14 8 3 6 10 14 18 22 26 29 32 34 35 36 37 38 38 40 42 44 46 49 52
49 50 51 52 53 54 56 56 57 58 59 59 59 57 55 52 49 45 39 31 23 15 9 4 6 10 15 20 24 28 31 33 35 36 37 38 39 40 41 43 45 47 49
48 49 49 50 52 53 54 55 57 57 57 58 58 58 56 54 51 48 43 38 33 25 17 9 5 6 10 16 22 26 30 33 35 36 37 38 39 40 40 42 44 46 47
48 48 48 49 50 51 52 53 53 55 56 56 56 56 55 54 52 49 46 42 37 33 26 18 10 5 6 12 18 24 29 32 35 36 38 39 40 41 41 42 44 45 46
47 48 48 48 49 50 51 52 52 52 52 53 54 54 54 53 52 50 47 45 41 37 32 26 18 10 4 6 13 21 27 31 34 37 39 40 41 41 42 42 44 45 45
46 46 47 47 48 49 50 50 50 51 51 51 51 52 52 52 51 50 48 46 44 40 36 31 25 18 9 4 7 15 23 29 33 37 39 41 42 43 43 43 44 45 45
45 46 46 46 47 48 48 48 49 49 50 50 50 50 50 50 50 49 48 46 44 42 39 34 30 24 17 9 4 9 17 26 32 36 39 42 44 44 45 45 45 45 46
44 45 45 45 46 47 47 47 48 48 48 48 49 49 49 50 50 49 48 46 45 43 40 37 33 28 22 15 8 4 11 20 28 34 38 42 44 46 47 48 48 48 47
43 44 44 44 45 46 46 46 47 47 47 47 47 47 48 48 48 49 48 46 45 43 41 39 35 31 26 20 13 6 5 14 22 30 36 40 44 47 49 49 50 51 50
43 43 43 44 44 45 45 45 45 45 45 45 45 46 46 46 47 47 47 46 45 44 42 40 37 33 29 24 17 10 5 7 16 24 32 38 42 46 49 51 52 52 52
42 42 42 42 43 43 44 44 44 44 44 44 44 44 45 45 45 46 46 45 45 44 43 41 39 35 32 27 21 14 8 5 11 19 26 34 40 44 47 50 53 54 54
42 42 42 41 41 42 43 43 43 43 43 43 43 43 43 43 44 44 45 45 44 43 43 42 40 37 34 30 25 18 11 6 7 14 21 29 36 41 45 49 52 54 55
41 41 41 41 41 41 42 42 42 42 42 42 42 42 42 43 42 43 44 44 44 43 43 42 40 38 35 32 27 22 15 9 5 9 17 24 31 38 42 46 50 53 54

GEFSGL_500_meanwind_054.txt.gz
Wind_Speed
65 63 62 61 61 61 61 63 63 64 64 63 60 56 52 47 41 35 30 28 30 34 38 39 39 38 38 39 41 45 52 58 62 66 68 70 73 80 86 91 94 94 92
63 62 61 61 61 61 61 63 64 65 65 63 60 55 50 46 42 35 27 21 20 25 31 35 36 37 37 37 39 42 48 54 59 63 66 68 70 75 81 88 92 94 93
62 61 60 60 60 61 61 63 64 65 65 63 60 55 50 45 41 36 28 19 12 15 22 28 31 33 35 36 38 40 45 51 56 60 64 66 67 70 76 83 89 92 93
60 60 59 60 60 61 62 63 65 65 64 63 59 55 50 45 40 35 29 21 11 5 13 20 25 28 31 33 36 38 42 48 53 57 61 64 65 65 69 76 83 90 91
59 59 59 59 60 61 62 63 64 65 64 63 60 55 50 44 39 33 28 23 14 2 9 15 19 23 27 31 33 35 38 44 49 54 58 62 63 63 65 69 76 84 89
59 58 58 58 59 60 61 62 63 64 64 63 61 56 51 45 38 31 26 21 14 6 7 12 15 19 23 27 30 33 36 40 45 51 55 60 61 62 62 64 70 77 82
58 57 57 57 58 59 60 62 62 63 63 62 60 57 53 46 38 31 26 21 14 7 6 9 11 15 19 23 26 30 33 36 42 47 52 57 59 60 59 60 65 71 77
57 56 56 56 57 58 59 60 61 62 62 62 60 58 55 50 41 32 26 21 14 8 4 4 7 11 15 20 23 27 30 33 38 44 49 54 56 57 57 58 61 66 71
57 56 55 55 56 57 58 59 60 61 61 61 60 59 56 52 46 36 27 21 14 9 4 1 5 9 12 17 21 24 27 30 34 40 45 50 54 55 55 56 58 61 65
56 55 55 55 55 56 56 57 59 60 60 61 60 59 57 54 49 42 32 24 17 11 6 2 3 6 9 13 18 22 25 28 32 37 42 47 51 53 54 54 56 59 63
56 55 54 54 55 55 55 56 57 58 59 60 60 59 57 54 51 46 39 31 23 16 10 5 3 5 8 11 15 19 23 26 30 35 40 44 48 51 52 53 55 58 61
56 55 54 54 54 54 54 54 55 55 56 57 57 57 56 55 52 48 44 38 31 22 15 9 4 3 7 10 13 17 21 24 28 33 37 41 45 48 50 50 52 56 59
55 54 54 53 54 53 53 53 52 53 54 54 55 55 55 54 53 50 46 42 38 31 22 13 7 3 5 8 11 15 19 23 27 31 35 38 42 44 45 46 48 52 56
54 54 53 52 52 53 52 51 51 51 51 52 53 53 53 53 52 50 49 45 41 36 30 21 12 6 4 7 10 14 18 22 26 30 33 36 39 41 42 43 45 48 53
53 53 52 52 51 52 52 51 50 51 51 52 52 52 51 51 51 51 49 47 44 39 34 28 19 11 5 4 8 13 17 21 25 29 32 34 37 39 40 40 41 43 48
52 51 51 51 50 51 50 51 51 50 50 51 51 51 50 50 50 49 48 47 45 42 38 32 25 17 10 3 5 11 16 20 24 28 31 33 35 36 37 38 38 39 43
52 50 50 50 50 50 49 49 48 49 50 49 49 49 49 48 48 47 47 47 45 43 40 36 29 23 15 7 2 7 14 19 24 27 30 32 33 35 36 37 37 37 39
52 50 49 49 49 49 49 49 48 47 47 47 47 47 47 47 47 47 46 45 45 43 41 38 33 26 20 13 4 3 10 17 23 27 30 32 33 34 35 36 36 36 38
51 50 48 48 48 48 49 49 48 48 47 47 46 45 45 45 46 46 45 45 44 44 42 39 36 30 23 17 9 1 7 14 20 25 29 31 33 34 34 35 36 36 38
51 49 48 47 47 47 48 48 47 47 47 46 45 45 44 44 44 44 44 44 43 43 42 40 37 33 27 20 13 6 2 11 18 23 28 31 33 34 34 35 35 36 38
51 49 47 46 46 46 47 47 47 46 46 46 46 45 45 44 44 44 44 44 43 43 42 41 38 35 30 23 16 8 1 6 15 21 26 30 33 35 35 35 35 36 39
51 49 47 46 45 45 45 46 46 46 45 45 45 44 44 44 43 43 43 43 43 43 42 41 39 36 32 26 19 11 4 3 10 18 24 28 32 35 36 37 37 37 38
50 49 47 46 45 44 44 45 45 45 45 44 44 43 43 43 43 42 42 42 42 42 42 40 39 37 34 29 22 14 6 2 8 14 22 27 31 34 37 38 38 38 39
50 49 47 45 44 44 43 44 44 45 44 43 43 43 42 42 42 42 41 41 41 42 41 40 38 37 35 31 25 18 10 2 6 12 18 25 29 33 37 39 40 41 40
49 48 47 45 43 43 43 43 43 44 43 42 42 42 42 42 41 41 41 41 41 41 41 40 38 37 35 32 27 20 13 5 4 10 16 22 28 32 36 39 40 42 42
48 48 46 44 43 41 42 42 43 43 43 42 41 41 41 41 41 41 41 41 41 41 40 40 39 37 35 33 29 23 15 7 2 8 14 20 26 31 35 38 40 42 44

GEFSGL_500_meanwind_060.txt.gz
Wind_Speed
71 69 67 64 62 61 60 60 60 60 60 61 61 59 57 54 49 46 42 39 33 26 16 8 9 16 23 29 35 38 40 42 44 49 54 59 66 72 79 87 94 101 106
70 68 66 63 61 60 59 59 59 59 60 60 60 59 57 54 50 45 41 36 31 23 14 6 1 8 15 22 28 33 37 40 41 45 50 55 61 67 74 80 87 94 100
69 67 65 62 61 59 58 58 58 58 59 59 60 59 56 54 50 45 40 34 28 21 13 8 3 4 9 16 22 27 32 37 39 42 47 52 58 62 68 75 81 88 94
68 66 64 62 60 59 58 58 57 57 58 58 58 58 56 54 51 46 40 33 26 19 12 7 3 2 7 13 18 22 27 33 36 39 44 50 55 59 63 69 75 81 88
67 65 64 61 59 58 57 57 57 56 57 57 57 57 56 54 51 47 40 34 26 19 12 7 3 1 6 10 15 18 23 29 33 36 41 46 52 56 60 65 70 76 82
66 65 63 61 59 58 57 56 56 56 56 56 56 56 55 54 51 47 42 35 28 20 13 8 4 2 5 9 13 17 21 25 30 33 38 43 49 53 57 62 67 73 78
66 64 62 60 59 57 57 56 55 55 55 55 55 54 54 53 51 48 44 38 30 23 16 10 6 4 4 8 12 16 19 23 27 31 35 41 46 50 54 58 63 70 75
65 64 62 60 58 57 56 55 55 54 54 54 54 53 53 52 50 48 45 41 34 26 19 13 8 6 5 7 11 15 18 21 25 29 34 39 44 49 52 56 60 66 72
65 64 62 59 57 56 55 55 54 54 54 53 53 52 52 52 50 48 46 42 38 31 22 16 11 7 7 7 10 13 17 20 23 27 32 37 43 47 51 54 57 62 68
65 63 62 59 57 56 55 54 54 54 53 53 52 52 51 51 50 48 46 43 40 35 28 20 14 9 7 8 9 12 16 19 22 26 30 35 41 45 49 53 55 58 63
65 64 62 59 57 55 54 54 53 53 53 52 51 51 51 50 49 48 46 44 42 38 33 26 19 13 8 7 9 12 15 18 21 25 29 34 39 44 48 52 54 56 59
64 63 62 59 57 55 54 53 53 52 52 51 50 49 49 49 48 47 46 45 42 40 36 30 23 16 10 6 7 11 14 17 20 24 28 33 38 43 47 50 53 54 56
63 63 62 60 57 55 53 52 52 51 51 50 49 48 48 47 47 46 46 45 43 41 38 33 27 20 13 7 5 9 13 16 20 23 27 32 37 42 45 49 51 53 54
63 62 61 60 57 55 52 52 51 50 50 49 49 48 47 47 46 46 45 44 43 42 39 35 30 24 17 10 5 6 11 15 18 22 26 31 36 40 44 47 50 51 53
62 62 61 59 57 55 53 51 50 50 50 49 49 48 47 46 46 46 46 45 43 42 40 37 32 27 20 13 7 4 8 13 17 21 25 30 34 39 43 46 48 50 51
61 61 60 59 57 54 52 51 51 50 50 49 48 48 47 46 46 45 45 44 43 42 40 37 34 29 23 17 10 3 5 10 15 20 24 29 33 38 41 45 47 49 50
61 60 59 58 57 54 51 50 49 49 49 49 48 47 46 46 45 44 43 44 43 42 40 37 34 30 25 19 13 5 2 8 14 19 24 28 32 36 40 44 47 48 50
60 59 59 58 57 54 51 49 48 47 47 47 47 46 45 45 44 44 43 43 42 42 40 37 34 31 26 21 15 7 1 6 12 17 22 27 31 35 39 43 46 48 49
59 59 58 58 57 55 52 49 48 47 46 46 45 45 45 44 44 44 43 42 42 41 40 38 35 31 27 22 16 9 2 4 10 16 21 26 30 34 37 41 44 46 47
58 58 57 57 56 55 52 49 48 46 45 45 44 44 43 43 43 43 43 42 42 41 40 38 35 31 26 22 17 11 4 4 9 15 20 25 29 32 36 40 42 44 46
57 57 56 56 55 54 52 49 47 46 45 45 44 43 43 43 43 43 43 43 42 41 40 38 36 31 27 22 17 11 5 3 8 13 18 23 28 32 35 38 41 42 44
55 55 55 55 55 54 52 50 47 45 44 44 44 43 43 43 43 43 42 43 42 41 40 38 36 32 27 22 17 12 6 2 7 13 17 22 27 31 34 37 39 41 42
54 54 54 54 54 53 52 50 47 45 44 43 43 43 42 43 42 42 42 42 42 41 40 38 36 33 28 23 18 12 6 1 6 12 16 21 25 29 33 36 38 40 41
52 52 52 53 53 52 51 50 47 45 43 42 42 42 42 42 42 42 42 42 42 41 40 38 36 33 29 24 19 13 7 1 5 11 15 19 24 28 31 34 37 39 40
51 51 51 51 51 51 51 49 47 45 43 42 42 41 41 41 41 41 42 42 42 41 39 38 36 33 29 25 20 14 7 2 4 10 15 19 22 27 30 33 35 38 40
49 49 50 50 50 50 50 49 47 45 43 41 41 40 40 40 41 41 41 42 41 40 39 38 35 32 30 26 21 15 9 3 3 9 14 19 22 25 29 31 34 36 39

GEFSGL_500_meanwind_066.txt.gz
Wind_Speed
69 71 72 73 74 74 72 69 67 65 63 61 61 60 59 58 56 54 52 50 47 43 38 32 28 24 19 14 9 7 10 17 24 33 40 45 49 52 58 67 76 87 97
70 71 72 73 74 73 71 69 66 64 63 61 60 59 58 58 56 54 51 49 46 42 37 31 26 23 19 14 10 8 9 13 20 27 33 39 43 46 52 59 68 78 88
71 71 72 73 73 73 71 68 65 63 62 61 59 58 57 57 55 53 51 49 46 43 38 31 26 23 19 15 12 9 9 12 17 22 28 33 38 41 46 52 60 69 79
73 72 72 72 72 72 70 67 65 63 61 60 59 58 57 56 55 53 51 48 46 43 39 33 27 23 19 15 12 10 9 11 15 19 24 29 33 36 41 46 53 62 71
73 72 72 72 72 72 70 67 64 62 61 60 58 57 56 55 55 53 51 48 46 43 40 35 29 24 20 16 13 10 10 11 14 17 21 25 29 32 36 41 47 55 63
74 73 72 72 72 71 70 67 64 62 60 59 58 57 56 55 54 53 51 49 47 44 41 36 31 25 21 18 15 12 11 11 13 16 19 23 26 29 33 38 42 49 56
74 73 72 72 71 70 69 66 64 61 59 58 57 56 55 54 53 52 51 49 47 44 41 37 32 27 22 19 16 13 12 12 13 15 18 21 24 27 31 34 39 45 52
74 73 72 72 71 70 69 66 63 61 59 58 56 55 54 53 53 52 50 48 47 45 42 39 34 29 24 19 16 14 12 12 13 15 17 20 22 25 28 32 37 42 48
74 73 72 71 70 69 68 66 63 61 59 57 56 55 53 53 52 52 50 48 47 45 43 40 36 31 25 21 17 14 12 12 13 15 17 19 22 24 27 31 36 41 46
73 73 72 71 70 69 68 66 63 61 58 57 55 55 53 52 52 52 51 49 47 45 44 42 38 33 27 22 18 14 11 11 12 14 17 19 22 23 26 29 34 39 44
72 73 72 71 70 69 67 66 63 60 58 56 55 54 53 51 51 51 51 50 48 46 44 42 39 34 29 23 18 14 11 10 11 13 16 19 21 23 25 29 34 39 43
71 72 71 70 69 68 67 65 63 60 58 56 54 54 52 51 50 50 50 49 48 46 45 43 40 35 30 24 19 14 10 9 10 12 14 17 21 23 26 30 34 38 42
69 70 70 69 68 67 66 65 63 60 58 55 54 53 51 50 50 49 49 49 48 46 45 43 41 37 31 25 20 15 10 8 9 11 13 16 19 22 25 30 34 38 42
68 69 69 68 67 67 65 64 63 61 58 55 53 52 51 50 49 49 48 48 47 46 45 42 40 37 32 26 21 15 11 7 8 11 13 15 19 22 25 30 35 39 42
66 67 68 67 66 66 65 64 62 61 58 56 53 52 50 49 49 49 49 49 48 47 45 42 39 36 32 27 22 16 11 7 6 9 12 15 19 21 25 31 35 38 41
64 65 66 66 65 64 63 63 62 60 58 55 53 52 50 49 49 48 49 49 48 47 46 43 38 34 32 28 22 17 12 7 4 8 12 15 18 22 25 30 35 38 41
63 63 65 64 64 63 62 61 60 59 58 56 53 51 50 49 48 48 48 48 48 47 46 43 38 34 31 28 23 18 13 7 2 6 11 15 19 22 26 30 35 38 41
61 61 63 63 62 61 61 60 59 58 56 55 53 51 49 48 48 48 47 47 47 47 46 43 38 33 30 28 24 18 13 7 0 6 11 15 19 22 26 31 35 38 41
59 59 60 61 60 60 59 59 58 57 56 54 52 51 49 47 47 47 47 46 46 46 45 43 39 33 29 27 24 19 13 6 1 6 11 15 19 22 27 31 35 39 42
57 57 58 59 59 58 58 57 57 56 55 54 52 50 48 47 46 46 46 46 45 45 45 43 39 34 29 26 23 19 13 7 2 6 11 15 19 22 26 31 35 39 42
55 55 55 57 56 56 56 55 55 55 54 53 51 50 47 46 45 45 45 45 44 44 44 42 39 35 30 26 23 19 14 7 2 7 11 15 19 22 26 31 35 39 42
53 53 53 54 54 54 53 54 54 54 53 52 51 49 47 45 45 44 44 44 43 43 43 41 39 36 31 27 23 19 13 8 2 7 11 15 19 22 26 31 35 38 41
51 50 50 51 52 51 51 52 52 52 52 51 50 49 47 45 44 43 43 43 42 42 41 40 38 36 32 28 24 19 14 8 3 6 11 15 19 23 27 31 35 38 40
49 48 48 49 49 49 49 49 50 50 50 50 49 48 46 44 43 42 42 41 41 41 40 39 37 35 32 28 24 19 14 8 3 5 10 15 19 23 27 31 35 37 39
46 45 45 46 46 46 46 47 47 48 49 48 47 47 46 44 42 41 40 40 40 40 39 38 36 34 31 27 24 20 15 9 3 5 9 13 18 22 27 31 34 36 38
44 43 43 43 43 43 44 45 45 46 47 47 46 45 45 43 41 40 39 39 39 39 39 37 35 33 30 27 23 20 15 9 4 5 9 12 16 22 27 30 33 36 38

GEFSGL_500_meanwind_072.txt.gz
Wind_Speed
58 60 63 66 68 70 71 72 71 70 70 70 68 67 65 62 60 59 58 57 56 54 52 50 49 46 43 39 34 31 28 26 23 19 18 19 23 30 40 52 61 70 78
58 61 63 66 68 70 71 72 71 70 70 69 68 66 64 62 60 58 57 56 55 53 51 49 48 46 43 39 34 30 27 25 23 19 17 17 21 26 33 44 54 63 71
58 61 63 66 68 70 71 72 72 70 69 69 67 66 64 61 59 58 57 55 54 53 51 49 47 45 42 39 35 30 27 24 22 19 17 17 19 23 29 37 47 55 63
59 60 63 66 68 70 71 72 72 70 69 68 67 65 63 61 59 57 56 55 54 53 51 49 48 45 42 38 34 30 26 24 21 19 17 17 18 21 27 33 41 49 57
59 60 63 65 68 70 71 71 71 70 69 68 66 64 62 60 58 57 55 54 53 52 51 49 47 46 42 38 34 30 27 24 21 19 17 16 17 20 25 31 37 44 51
59 60 62 65 67 69 70 70 70 70 69 67 66 64 62 60 58 57 56 54 53 52 51 49 47 45 42 38 34 31 27 24 21 18 17 16 17 20 23 28 34 39 45
59 60 62 64 66 68 70 70 70 69 68 66 65 63 61 59 57 56 55 54 53 52 52 50 48 45 41 37 33 30 27 23 20 18 17 17 17 19 22 27 31 36 41
59 60 62 64 65 67 68 69 69 68 67 66 64 62 60 59 57 55 54 54 53 52 52 51 48 45 41 37 33 29 27 23 20 17 17 16 16 18 21 25 29 33 38
60 60 62 63 64 66 67 67 68 67 66 65 64 62 60 58 57 55 54 53 52 52 51 51 49 45 41 36 33 30 27 23 20 16 15 15 15 17 20 24 27 31 35
60 60 61 62 63 65 66 66 66 66 65 64 63 62 60 58 56 55 53 53 52 51 51 50 49 45 41 36 32 29 26 22 19 15 14 14 15 17 20 23 26 29 33
60 60 61 62 63 63 64 65 65 65 64 63 62 61 60 57 55 54 53 53 52 51 51 50 48 44 40 35 32 29 25 21 17 14 13 13 14 16 19 22 25 28 31
61 60 61 62 62 62 63 63 63 63 63 62 61 60 59 57 55 54 52 52 52 51 50 49 47 43 39 35 32 29 25 20 16 13 11 12 13 15 18 21 24 27 30
61 61 61 61 62 61 61 61 61 61 61 61 60 59 58 57 55 53 52 51 51 51 50 49 47 43 39 35 31 28 24 20 16 12 10 11 12 15 18 21 24 27 29
61 60 61 61 61 60 59 60 60 59 59 59 59 58 57 56 54 52 51 50 50 50 49 47 46 43 39 35 31 27 24 20 15 11 9 10 12 14 16 20 23 26 29
60 59 59 59 59 58 58 58 58 58 58 58 57 57 56 54 53 52 50 49 49 49 47 46 44 42 39 34 31 27 24 20 15 10 8 8 11 13 15 18 22 24 28
58 58 58 57 57 56 56 56 57 56 56 56 56 56 55 54 53 51 49 49 48 48 46 45 43 42 38 34 30 27 23 19 14 9 6 7 10 13 14 17 21 24 28
57 57 57 56 56 55 55 55 55 55 54 55 55 54 54 53 52 50 49 48 47 46 45 44 43 41 38 34 30 26 23 18 13 8 4 5 9 12 14 16 20 24 28
55 54 53 52 52 52 52 53 53 53 52 53 53 53 53 52 51 49 48 47 46 45 44 43 42 40 37 34 30 26 22 17 12 7 2 4 8 11 14 17 20 23 27
53 52 51 50 50 49 50 50 51 51 50 50 51 51 51 51 50 48 47 45 45 44 43 42 42 39 36 33 30 26 21 16 10 5 1 4 9 12 14 17 19 23 28
51 50 50 48 48 47 47 48 49 49 49 48 49 49 50 49 48 47 45 44 43 43 42 42 41 39 35 32 29 25 20 15 9 4 1 5 10 13 15 18 21 25 29
49 48 47 46 46 45 45 46 47 47 46 46 46 47 48 48 47 45 44 43 42 42 41 40 39 37 34 30 28 24 19 13 8 3 2 6 10 13 16 19 22 26 30
48 47 45 44 44 43 43 44 44 44 44 44 44 45 46 46 45 43 43 42 41 41 40 39 37 35 33 29 26 23 18 13 7 3 4 7 11 14 18 21 24 27 30
47 46 44 43 41 40 40 41 41 42 42 41 42 43 44 44 43 42 42 41 40 40 39 37 35 33 31 28 25 21 17 12 7 4 5 8 11 16 20 23 25 28 30
44 42 41 40 39 37 37 38 39 39 39 39 40 41 42 42 41 40 40 40 39 38 37 35 34 32 29 27 24 20 16 11 7 4 5 9 12 17 22 24 26 28 31
40 39 37 36 36 35 34 35 36 36 36 37 37 38 39 39 39 39 39 38 38 37 35 33 32 30 28 25 22 19 15 11 7 5 6 10 14 18 23 25 26 28 30
37 35 34 33 33 32 32 32 32 33 33 34 35 36 37 37 37 37 37 37 36 35 33 31 30 28 26 24 22 18 14 11 8 5 7 11 15 19 23 25 26 28 31

GEFSGL_500_meanwind_078.txt.gz
Wind_Speed
59 60 60 61 62 63 63 64 65 65 67 67 67 69 71 71 72 72 71 71 70 69 68 66 65 64 63 62 61 59 57 56 52 45 42 38 36 35 33 31 29 30 37
61 62 62 63 64 64 64 65 65 66 67 67 68 69 70 71 71 71 70 70 69 68 67 65 64 63 62 61 60 57 55 54 52 46 41 39 36 34 32 30 28 28 32
62 63 63 64 65 65 65 65 66 66 67 67 68 69 70 70 71 70 70 69 68 67 66 64 63 62 60 60 59 56 54 52 50 46 41 39 36 34 32 29 27 26 29
63 63 64 65 66 65 65 66 66 66 67 67 68 68 69 70 70 69 69 68 67 66 64 63 62 61 60 59 57 55 52 50 48 45 42 38 36 33 31 28 26 25 27
63 64 65 66 66 66 66 65 65 65 66 67 67 67 68 68 69 68 68 67 66 65 63 62 61 61 59 58 57 54 51 49 47 44 41 38 35 32 29 27 25 24 25
65 66 66 67 67 67 66 65 65 65 65 65 66 66 66 67 67 67 67 66 65 64 62 61 60 59 58 57 56 53 50 48 46 44 41 38 35 31 28 26 24 24 24
67 67 68 68 67 66 65 65 64 64 64 64 64 64 65 66 66 66 66 65 64 63 62 61 59 58 57 55 54 51 48 46 44 43 40 36 33 30 27 25 23 22 23
68 68 68 67 66 65 64 63 63 63 63 63 63 63 63 64 65 65 65 64 63 62 62 61 59 57 56 54 53 50 47 44 42 41 38 35 31 28 25 23 22 21 22
68 68 68 66 64 63 62 61 61 61 61 61 61 61 62 63 63 64 63 63 62 61 61 60 59 56 54 53 52 49 45 42 40 38 37 34 30 26 23 22 20 20 20
66 65 63 61 60 59 59 59 58 58 58 58 59 59 60 60 61 62 62 62 61 60 59 58 57 55 53 51 50 48 44 41 39 37 35 32 28 24 21 19 18 18 18
61 59 58 57 56 56 56 55 55 54 54 55 56 57 58 58 59 61 61 60 60 59 58 57 55 54 51 49 49 47 44 40 38 36 33 29 25 22 19 18 16 16 17
56 56 55 55 54 54 54 53 52 52 52 54 54 55 56 57 57 59 59 59 59 58 57 56 54 52 50 47 46 45 43 40 37 34 31 28 24 21 18 16 15 15 17
54 54 54 53 53 54 53 52 51 51 51 51 52 53 54 55 56 57 58 57 57 57 56 54 52 51 48 46 45 44 42 38 35 32 29 27 23 19 16 15 14 14 16
54 54 53 53 53 53 52 50 49 49 49 49 50 51 52 52 54 55 56 56 55 55 54 52 51 49 47 45 44 43 41 37 33 30 28 25 21 17 14 13 12 13 15
54 54 54 54 53 52 51 50 49 47 47 47 48 49 50 51 52 53 54 54 54 53 52 51 49 48 46 45 43 42 39 35 32 29 26 23 19 15 13 11 11 12 14
55 55 54 54 53 52 51 50 48 47 46 46 47 47 48 49 50 51 52 52 52 51 51 49 48 47 45 44 42 40 37 34 30 27 24 21 18 14 12 11 10 12 14
55 55 55 54 53 52 51 49 47 46 45 45 45 45 46 47 48 49 50 50 50 50 49 48 47 46 44 43 40 38 35 32 29 25 22 19 16 13 10 9 9 10 12
55 54 54 53 52 50 49 47 45 44 43 43 43 44 44 45 46 47 47 48 48 48 48 47 46 44 43 41 38 35 33 30 26 23 19 17 14 10 7 6 6 8 11
53 53 52 51 49 48 46 45 43 42 41 40 41 42 42 43 44 45 45 45 46 47 47 45 44 42 40 38 36 33 30 27 23 20 17 14 12 8 5 3 4 7 10
52 52 51 49 47 45 44 42 40 39 38 38 39 39 40 41 42 42 43 43 44 45 45 43 42 40 38 36 33 31 28 24 20 17 15 13 10 6 3 1 4 6 10
50 49 48 46 43 42 41 39 37 35 35 35 35 36 37 38 39 40 40 41 42 42 42 40 39 37 35 33 31 28 25 22 18 16 14 12 9 6 2 1 4 7 10
49 47 46 43 41 39 38 36 34 32 31 32 33 34 35 36 37 37 38 39 40 39 39 37 36 34 33 31 28 26 23 20 17 15 13 11 9 6 3 2 4 7 11
46 45 43 41 38 37 35 32 31 29 29 29 30 31 32 34 34 35 36 37 36 36 35 35 34 32 30 28 26 24 21 19 16 13 12 10 8 6 4 4 6 8 11
45 43 41 38 36 34 31 29 27 27 27 28 28 29 30 31 32 32 33 34 33 33 33 32 32 30 28 26 24 22 21 18 15 12 10 9 8 7 5 5 7 9 11
42 40 38 36 33 31 28 25 25 25 26 26 25 26 27 28 29 30 31 31 31 31 31 30 30 29 26 24 23 21 19 17 14 12 10 8 8 7 6 7 8 10 13
39 37 35 32 30 28 25 23 23 24 24 23 22 23 24 26 27 28 29 29 29 29 29 29 28 27 25 23 21 20 18 15 13 11 10 8 7 7 6 7 10 12 14

GEFSGL_500_meanwind_084.txt.gz
Wind_Speed
54 55 56 57 58 59 61 62 64 65 65 66 66 67 66 66 65 64 64 64 64 64 63 64 65 66 66 67 68 69 69 70 68 64 62 60 60 59 57 56 54 53 49
55 56 57 58 59 61 62 64 66 66 67 67 68 67 66 65 65 64 64 64 63 63 64 64 65 65 65 66 67 67 68 68 67 64 60 59 58 57 56 55 53 51 48
57 58 59 60 62 63 65 66 66 67 67 67 67 67 66 65 64 64 63 63 63 63 64 64 64 64 64 65 66 66 66 66 65 63 60 58 56 55 54 53 51 49 46
59 60 61 62 64 65 66 66 67 67 66 66 65 64 63 63 63 62 61 61 62 62 63 64 63 63 64 64 65 65 65 64 63 62 59 57 55 53 52 51 49 47 45
61 62 63 64 65 65 65 64 64 63 63 62 62 60 59 59 59 59 59 60 61 61 62 63 62 62 63 63 63 63 63 63 61 60 58 56 54 52 50 50 48 45 43
62 62 62 63 63 62 62 61 60 60 59 59 58 57 57 56 56 57 57 58 59 60 60 60 60 61 62 62 61 62 62 61 60 58 56 55 52 51 49 48 46 44 41
60 60 59 58 58 57 57 57 56 57 58 57 56 55 54 54 55 55 56 56 57 57 58 58 59 60 61 60 59 60 59 58 57 56 54 53 51 50 48 46 44 42 40
56 55 55 54 54 54 54 54 55 56 56 54 54 53 53 54 55 55 56 56 55 55 56 57 58 59 59 59 58 58 57 55 54 53 53 51 49 47 45 43 42 40 37
53 53 53 53 52 52 53 53 54 55 54 54 54 53 53 53 54 55 54 55 54 54 55 56 57 57 57 57 57 56 55 53 52 51 50 48 46 45 43 42 40 38 35
53 53 53 54 54 54 54 55 54 54 54 54 53 53 53 53 53 53 53 53 53 53 54 55 55 56 56 55 55 54 53 51 50 49 48 46 45 43 41 39 38 36 33
53 54 54 55 55 55 55 54 54 54 54 54 53 52 52 52 51 51 51 51 52 52 52 53 53 54 54 53 53 52 51 50 48 47 46 45 44 42 40 38 36 34 31
54 55 55 55 55 55 55 55 55 54 54 53 52 52 51 51 50 50 50 50 50 50 50 51 52 52 52 51 50 49 49 48 47 46 44 43 42 40 38 36 34 31 28
55 56 55 55 55 55 55 54 53 53 53 52 51 51 50 49 49 48 48 49 49 48 48 49 50 50 50 49 48 48 47 46 45 43 42 41 39 37 35 33 31 29 26
55 55 54 54 54 54 53 53 53 52 52 51 49 49 48 47 47 46 47 47 47 46 46 47 48 48 48 47 46 46 45 44 42 41 39 38 36 34 32 30 28 26 24
55 54 54 54 54 53 52 52 52 51 50 49 48 47 46 45 44 45 45 45 44 43 44 45 46 46 45 45 44 43 42 40 39 38 36 35 33 31 29 27 25 23 22
54 54 54 54 53 52 51 50 49 49 47 46 46 45 43 42 43 43 42 41 41 41 41 42 43 43 43 42 41 40 39 37 36 35 33 31 29 28 27 25 23 21 20
53 53 52 52 52 50 49 48 47 46 45 44 43 42 41 41 40 39 38 38 38 39 39 40 41 41 40 39 38 36 35 34 33 32 30 28 27 25 24 22 21 19 17
52 52 51 51 50 49 47 46 45 44 43 42 41 40 39 38 36 35 35 35 36 36 37 38 39 38 37 36 35 34 33 31 30 29 27 25 24 23 21 20 19 17 15
50 50 50 49 48 47 46 45 44 43 42 41 41 39 38 35 33 33 33 33 34 34 36 36 36 35 34 33 32 31 30 29 28 26 24 23 22 21 19 18 17 14 12
48 48 48 47 46 46 45 44 43 42 41 40 38 36 34 32 31 31 31 31 32 33 33 33 33 32 31 30 29 28 27 26 25 23 22 21 20 19 18 16 14 12 9
47 46 46 46 45 44 44 43 42 41 40 38 35 32 31 29 29 29 29 29 30 30 30 30 30 30 28 26 26 25 24 23 22 21 20 19 18 17 16 14 12 10 7
45 45 45 44 43 43 43 42 41 40 37 34 31 29 28 27 27 27 26 27 27 28 28 29 28 27 25 23 23 22 22 22 21 20 19 18 17 16 15 13 10 8 6
44 45 44 43 42 42 41 40 38 36 33 30 28 27 26 25 24 24 24 25 26 26 26 27 26 24 22 21 21 22 22 22 21 20 19 17 17 15 14 11 8 6 5
44 43 42 41 40 39 38 36 34 32 30 27 25 24 23 23 22 22 22 23 23 24 24 24 23 22 21 20 20 21 22 21 21 20 18 17 16 14 12 10 7 5 4
41 40 40 39 38 36 35 33 31 29 26 24 22 22 21 20 20 20 20 21 21 22 23 23 22 21 20 20 20 20 21 20 19 19 17 16 14 12 11 9 6 4 3
38 37 37 36 35 33 31 29 28 26 23 21 20 19 18 18 18 18 19 19 20 21 21 21 21 20 20 20 20 19 19 18 18 17 16 13 12 10 8 7 5 2 3

GEFSGL_500_meanwind_090.txt.gz
Wind_Speed
52 54 55 56 58 59 61 62 63 65 66 67 68 70 71 71 71 71 71 71 71 71 71 70 68 68 67 67 66 66 66 67 67 65 66 66 67 67 67 67 68 67 66
54 55 57 58 59 60 61 63 64 65 66 68 69 70 70 70 69 69 68 69 69 68 67 67 66 67 67 67 66 66 66 67 67 65 64 64 64 65 65 66 66 65 64
56 57 58 59 60 61 62 63 64 64 64 65 66 66 66 67 67 67 66 66 66 66 66 65 65 66 66 65 65 66 66 67 66 65 63 63 63 64 65 65 64 63 63
60 60 61 61 62 62 62 62 62 62 62 62 62 63 63 64 64 64 64 64 64 64 64 63 63 63 63 64 65 65 65 65 65 65 64 63 63 63 64 64 62 61 61
63 63 63 63 62 61 60 60 60 60 60 61 61 61 61 61 61 62 62 62 62 62 63 62 61 61 62 63 63 63 64 64 64 64 64 62 61 62 62 62 61 60 59
64 64 63 62 61 60 59 59 59 59 60 60 60 61 61 61 61 62 62 62 61 62 61 60 59 59 60 61 61 61 62 62 62 62 61 60 60 61 61 60 60 59 58
65 64 63 61 60 60 59 59 59 60 60 60 61 61 61 61 61 61 61 60 59 60 59 59 58 58 59 59 59 60 59 60 60 60 60 59 59 59 59 59 59 58 57
65 64 62 61 60 60 59 59 60 60 61 60 60 60 60 59 59 58 59 58 58 57 56 56 55 56 56 58 58 58 57 57 58 59 58 58 58 57 57 57 57 56 55
65 64 62 61 61 60 60 60 60 60 59 59 58 58 58 57 56 56 57 57 56 55 54 54 54 54 55 56 55 55 55 55 56 56 56 55 55 54 55 55 55 54 54
64 63 62 61 60 60 59 59 58 58 58 57 57 57 56 55 55 55 55 55 54 53 52 52 52 52 52 53 53 52 53 53 53 53 53 52 52 52 53 53 53 53 52
63 61 60 59 59 58 57 57 57 56 56 55 55 54 53 53 52 52 52 52 51 50 50 50 50 49 50 50 50 50 50 50 50 50 50 49 49 49 49 50 50 50 50
61 59 58 58 57 57 56 55 54 54 53 53 52 51 50 50 49 49 49 49 48 48 47 47 47 46 47 47 48 48 48 48 47 47 47 47 47 47 46 46 46 46 46
59 58 57 56 56 55 55 53 53 52 52 50 49 48 47 46 46 46 46 46 46 45 44 44 43 43 44 44 45 45 45 45 45 44 44 44 44 44 43 43 43 43 43
57 56 55 54 53 53 52 52 51 51 49 48 47 46 44 44 45 45 45 44 44 44 42 41 41 41 41 41 42 42 42 42 42 42 42 41 41 40 40 41 40 41 41
55 54 53 52 51 50 50 49 49 48 47 46 45 45 44 44 45 44 44 43 42 41 40 39 39 39 39 39 39 39 39 39 39 39 38 38 37 37 38 38 39 39 39
53 51 50 49 49 48 47 46 45 45 45 45 45 45 44 44 43 43 42 41 40 39 38 37 37 36 37 36 36 36 37 36 36 35 35 35 35 36 36 37 37 37 36
52 50 48 47 46 46 45 44 43 43 43 43 44 44 44 43 42 41 40 39 38 37 36 35 34 34 34 34 34 34 34 33 33 33 33 34 34 34 35 35 35 35 34
49 48 47 45 45 45 44 43 43 42 41 41 42 43 43 42 40 39 38 37 36 35 33 33 32 33 33 33 32 31 31 30 31 32 33 33 33 34 34 33 33 33 32
47 46 45 44 44 43 42 41 41 41 41 41 41 41 40 38 37 37 36 35 34 32 31 31 30 31 31 30 30 29 29 29 30 32 32 32 33 33 32 31 31 31 31
44 44 43 43 42 41 40 40 40 40 40 40 38 37 36 35 35 35 34 32 31 30 29 28 29 29 29 29 28 28 28 29 30 31 31 31 31 31 30 30 30 30 29
43 42 42 41 40 40 39 39 39 39 38 37 35 35 35 35 34 33 31 29 28 27 27 26 27 27 27 27 27 27 27 28 29 30 30 30 30 29 29 29 28 28 28
41 41 40 39 38 38 39 38 38 37 36 35 34 34 34 33 31 30 29 27 26 25 24 25 25 25 26 25 25 26 27 28 29 29 29 29 28 28 27 27 26 26 25
39 39 38 37 37 37 37 36 36 35 34 33 33 32 31 30 29 28 26 25 24 24 24 24 24 25 25 24 24 25 26 27 28 28 28 27 26 26 25 25 25 24 23
37 37 36 36 36 36 35 34 33 32 32 31 30 29 28 27 27 26 24 23 23 23 23 23 23 23 24 24 24 25 26 27 27 27 26 25 24 24 24 24 23 23 22
36 36 35 34 34 34 34 33 32 31 30 29 28 27 26 26 25 24 23 22 22 22 22 22 22 23 23 23 23 25 25 25 25 25 25 24 24 23 23 23 22 21 20
34 34 33 33 33 33 32 31 30 29 28 27 26 25 25 24 23 22 22 22 22 22 21 21 22 21 21 22 23 24 24 23 23 24 24 23 23 23 22 21 20 19 17

GEFSGL_500_meanwind_096.txt.gz
Wind_Speed
57 59 60 62 63 65 66 67 67 68 68 68 68 69 69 69 69 69 69 69 69 69 69 69 68 68 69 69 69 69 69 68 66 64 64 65 66 67 68 68 68 67 67
63 65 66 67 69 69 70 70 70 70 70 70 70 70 70 69 69 69 68 68 69 68 68 69 68 68 69 69 69 69 68 67 66 63 63 64 65 66 67 66 66 67 67
68 69 70 71 72 73 73 72 72 72 71 71 71 71 70 69 69 68 68 68 68 68 67 68 67 68 68 67 68 67 67 66 65 64 63 63 64 65 65 66 66 66 66
72 73 74 74 75 75 74 74 73 72 71 71 71 70 69 69 68 68 68 67 67 66 66 66 66 66 66 66 66 65 64 64 64 63 63 62 63 63 64 64 64 64 64
75 76 76 76 76 76 75 74 73 72 71 70 70 69 68 67 67 67 67 66 65 64 64 64 64 65 64 63 63 62 62 62 62 62 61 61 61 61 62 63 63 63 63
78 78 78 77 76 75 73 72 71 70 69 68 67 66 65 65 65 65 64 64 63 62 61 61 61 60 60 61 60 60 60 60 60 59 59 59 59 60 61 62 62 62 61
79 79 78 76 74 72 71 70 68 67 67 66 65 64 62 62 62 62 62 61 60 59 58 57 57 57 58 58 58 59 59 58 58 58 58 57 58 59 60 60 60 61 60
79 77 75 73 71 69 68 66 66 65 63 63 61 60 59 59 59 58 57 57 56 55 55 55 54 54 54 54 55 55 55 55 55 56 56 56 57 58 58 59 59 59 58
75 73 70 69 67 65 63 62 61 60 59 59 57 57 56 55 55 54 54 53 53 53 53 52 52 51 52 53 53 52 52 52 54 55 55 55 54 55 56 57 57 57 56
71 69 66 64 62 60 59 58 58 57 56 55 53 53 52 52 52 51 51 51 50 50 49 49 49 49 50 50 50 50 50 50 51 52 52 53 52 53 54 54 54 55 54
67 64 62 59 58 57 56 55 55 54 53 51 50 50 50 50 49 49 49 49 48 47 47 46 47 48 48 48 48 48 48 49 49 49 49 49 50 50 51 51 52 52 52
63 60 57 56 55 54 54 53 52 51 49 48 47 47 47 47 47 47 46 46 46 45 44 44 45 46 46 46 46 46 47 47 47 46 46 46 47 47 47 48 48 48 48
59 56 55 53 52 52 52 50 49 47 46 45 45 44 44 44 44 44 43 43 43 43 43 43 43 44 44 44 44 44 45 45 45 44 43 43 44 44 44 44 45 45 45
57 55 53 52 51 50 49 47 46 45 44 43 42 42 41 41 41 41 41 41 41 41 41 41 41 41 42 42 42 42 42 42 42 41 40 40 41 42 42 42 43 43 43
55 53 51 49 48 46 45 44 43 42 42 42 41 41 40 39 39 39 39 38 38 38 39 39 39 39 39 39 39 39 40 40 39 38 38 38 38 39 39 40 41 41 41
53 50 48 46 45 44 42 41 41 41 40 40 41 40 39 39 38 37 37 37 37 37 37 36 36 36 37 37 37 37 38 37 37 37 36 36 37 37 38 39 39 39 40
50 48 46 45 44 43 42 41 39 38 38 39 39 38 38 37 37 36 36 35 35 35 34 34 35 35 36 36 35 35 35 34 34 34 34 35 36 36 36 37 38 38 38
48 46 45 44 43 42 41 40 39 37 36 36 36 36 36 35 35 34 33 33 33 33 33 33 34 34 34 33 33 33 33 33 33 33 33 34 34 34 35 36 36 37 37
45 43 42 42 41 40 39 38 38 37 37 36 34 34 34 33 33 32 31 31 32 32 32 33 33 33 32 32 31 32 32 32 32 32 32 33 33 33 34 34 35 35 36
43 42 41 41 40 39 38 37 36 36 36 35 33 32 31 31 30 30 30 30 31 31 31 31 31 31 31 30 30 30 30 30 30 31 31 31 32 33 33 33 33 34 34
41 40 40 39 38 37 37 36 35 35 35 33 32 31 30 29 29 29 29 30 29 29 29 29 29 28 28 27 27 27 28 28 29 29 29 30 31 32 32 32 32 32 33
40 39 38 37 36 36 36 35 34 34 34 32 30 29 28 28 28 29 29 28 27 27 27 27 26 26 26 25 25 26 27 27 27 28 28 29 30 31 30 30 31 31 32
38 36 36 35 35 34 34 34 33 33 31 30 28 27 27 28 28 28 27 26 26 26 26 25 25 24 23 23 24 25 25 26 26 26 27 28 28 28 29 29 30 30 30
35 34 33 33 32 32 32 32 31 31 30 28 28 27 28 27 27 26 25 25 25 25 24 24 23 23 22 23 23 24 24 24 25 25 26 27 27 27 27 27 28 28 27
33 32 32 31 31 31 31 30 30 29 28 27 27 27 27 26 26 25 25 24 24 23 23 23 22 21 21 22 23 23 23 23 24 25 25 26 26 26 26 26 26 26 25
31 31 30 30 30 30 29 29 29 28 27 26 26 26 26 26 25 25 24 24 23 23 22 22 21 21 21 22 22 22 21 22 23 24 24 25 25 25 25 25 25 24 24

GEFSGL_500_meanwind_102.txt.gz
Wind_Speed
60 62 64 67 69 72 74 76 78 79 81 81 82 83 83 83 84 84 84 83 83 83 83 83 83 83 83 83 83 82 82 81 80 74 75 74 74 74 74 74 74 74 73
65 67 69 72 75 77 79 81 82 83 84 84 85 85 85 85 84 84 83 82 81 81 80 81 81 81 82 81 80 79 79 78 77 74 73 74 73 73 73 73 73 73 73
70 72 75 77 80 82 83 84 84 85 84 84 84 84 84 83 82 81 80 79 78 77 76 77 76 76 76 75 75 74 74 74 73 72 70 71 71 71 72 72 72 71 71
74 77 79 81 83 84 84 84 84 83 83 83 82 82 80 79 78 77 75 74 73 72 71 71 70 70 70 70 70 69 69 69 69 69 67 67 68 68 69 68 68 68 67
78 80 82 83 84 84 83 83 82 81 81 80 78 76 75 73 71 70 69 68 67 66 65 65 65 64 64 64 64 64 65 65 65 64 63 63 64 64 64 64 65 64 64
81 82 83 83 83 83 82 82 81 79 77 75 73 71 69 66 65 64 64 63 61 60 60 59 59 59 59 60 60 61 62 61 61 61 60 60 59 60 61 61 61 61 60
82 83 83 83 82 82 81 80 77 75 72 70 67 65 62 60 60 60 59 58 57 56 55 54 53 54 55 56 56 57 58 58 59 59 58 57 57 57 59 59 58 58 58
82 82 82 82 82 80 78 75 72 69 67 64 61 59 57 55 55 55 54 53 51 50 50 50 50 50 51 52 52 52 53 54 54 55 54 53 54 56 56 56 56 56 55
82 82 81 81 79 76 73 69 67 64 61 59 57 55 53 51 51 50 49 48 47 46 46 46 47 47 48 49 49 49 49 49 50 51 52 52 52 52 53 53 54 54 54
82 81 79 77 75 72 68 65 63 60 57 55 53 51 50 49 47 47 46 45 44 43 42 43 44 45 45 46 46 46 46 46 47 48 49 49 49 50 51 51 52 52 52
80 78 76 73 70 67 65 62 60 57 54 52 51 49 48 47 45 45 45 44 43 42 41 41 41 42 43 43 44 44 44 44 44 45 45 46 47 48 49 50 50 51 51
77 75 71 68 65 63 61 59 56 54 52 50 48 46 45 44 44 43 43 42 42 41 40 40 40 40 41 41 42 42 42 41 42 42 42 43 44 46 47 47 48 49 49
74 70 67 64 62 60 58 56 53 51 50 48 46 44 42 42 42 42 41 41 41 40 40 39 38 38 38 38 39 39 39 39 39 40 40 40 42 43 44 45 45 46 47
71 67 64 61 58 56 54 52 51 49 48 46 44 43 41 41 40 40 39 39 38 38 38 37 36 36 36 35 35 35 36 36 36 36 37 38 39 40 41 42 42 43 44
67 64 61 59 56 53 50 49 48 46 46 45 44 43 41 39 39 38 37 36 36 36 35 34 34 34 34 33 33 33 33 34 34 35 36 36 36 37 37 38 39 40 40
65 62 59 56 53 51 48 45 45 45 44 43 43 43 41 40 38 37 36 35 34 34 33 33 32 32 32 32 32 33 33 34 34 35 35 35 36 36 37 37 38 38 39
62 59 56 53 51 49 47 44 42 40 40 40 41 41 40 39 37 36 35 34 33 33 32 32 32 31 31 32 32 32 33 33 34 34 35 36 36 37 37 37 38 37 38
58 55 53 51 48 46 44 43 41 39 37 36 38 39 38 37 36 35 34 33 32 32 32 31 31 31 31 32 32 32 32 33 33 34 35 35 35 35 35 36 36 36 37
55 52 49 47 45 43 42 41 40 38 37 37 36 36 37 36 35 35 34 33 32 31 31 30 30 29 29 30 30 30 31 32 32 33 33 33 33 33 33 34 35 36 36
50 48 46 45 43 41 40 39 38 36 36 36 36 35 35 34 33 32 32 31 31 30 29 28 28 28 29 29 29 29 29 29 29 30 30 30 31 31 32 33 34 35 36
47 44 44 43 41 39 38 37 36 35 35 35 34 34 34 32 31 30 30 30 29 28 28 27 27 28 28 28 28 27 27 27 27 28 28 29 30 30 31 31 32 33 34
44 43 41 40 38 36 36 35 35 35 34 34 33 33 32 31 30 29 29 28 28 28 27 27 27 27 27 27 26 26 26 26 27 27 28 28 29 29 30 31 31 32 32
42 41 39 37 36 35 35 35 34 34 34 33 32 31 31 30 29 29 29 28 28 28 28 27 27 27 26 26 25 25 25 26 26 26 27 27 27 28 28 29 29 30 31
40 38 37 35 34 34 34 33 33 33 33 32 31 30 30 29 29 28 28 28 28 28 27 26 26 26 25 25 24 24 24 25 25 25 25 25 25 26 27 28 29 30 30
37 36 35 33 32 32 32 32 32 32 32 31 29 29 29 28 28 28 27 27 26 26 25 25 25 24 23 23 24 24 24 24 24 24 24 24 24 25 26 27 28 29 30
34 34 33 32 31 31 31 30 30 30 30 29 28 28 28 27 26 26 26 25 25 25 25 25 25 24 24 24 24 24 24 25 25 25 25 25 25 25 25 26 27 27 28

GEFSGL_500_meanwind_108.txt.gz
Wind_Speed
53 56 58 61 63 66 68 70 72 73 75 77 79 80 81 81 81 81 81 81 81 81 80 80 80 80 80 80 80 81 82 83 83 80 81 83 85 85 84 84 84 84 83
57 60 62 65 67 69 71 73 75 77 78 80 81 81 80 79 79 79 79 79 79 79 78 77 76 75 75 75 74 74 74 75 76 74 73 75 76 77 77 77 78 79 79
61 64 66 69 71 72 74 75 77 78 80 80 80 79 78 78 78 78 78 78 77 76 74 73 71 70 69 68 67 67 67 67 67 66 64 66 68 69 71 71 72 72 73
65 67 69 71 72 74 75 77 78 79 80 79 78 77 77 77 77 77 76 75 73 71 68 66 65 63 62 61 61 61 61 60 60 60 59 59 61 62 64 64 65 66 67
67 69 71 72 74 75 77 78 79 80 79 78 77 77 77 77 75 74 72 70 67 64 62 60 58 57 56 56 56 55 54 55 55 55 54 53 54 56 57 59 60 61 62
69 71 72 74 75 77 78 79 79 79 78 77 77 76 75 73 71 69 67 64 61 58 56 55 54 53 52 51 51 51 50 50 50 51 50 50 49 51 53 54 56 57 58
70 72 74 76 77 78 79 79 79 78 77 76 75 73 71 69 67 64 61 59 56 54 53 51 50 49 48 48 47 47 47 48 48 48 47 46 47 48 50 51 52 53 54
72 74 76 77 79 79 79 79 78 77 75 74 72 70 67 64 62 59 57 54 52 50 49 48 47 46 46 46 45 44 43 43 44 45 45 45 45 46 47 48 48 50 51
74 75 77 79 79 79 78 77 76 75 73 71 69 66 63 60 57 55 53 50 48 47 46 46 46 45 44 44 44 42 41 41 42 43 44 44 43 44 44 45 46 47 48
75 77 78 79 79 78 77 76 74 73 70 68 65 62 59 55 52 50 49 47 46 45 44 44 43 42 41 41 41 40 40 39 40 41 41 41 42 42 43 43 44 45 45
77 78 79 78 78 77 76 74 73 71 67 64 61 57 54 51 48 47 46 45 44 42 41 40 40 39 39 38 38 38 38 38 38 38 38 39 39 40 41 42 42 43 43
78 78 78 77 76 76 74 72 70 67 63 60 56 52 50 47 45 44 43 43 42 41 39 38 38 37 36 36 36 37 37 37 37 37 37 37 38 38 39 39 40 41 41
78 78 77 76 75 75 73 70 67 63 60 56 52 48 45 43 42 41 40 40 39 38 38 37 36 35 35 35 35 36 36 36 36 36 35 35 36 36 36 37 38 39 39
78 77 76 75 74 72 69 66 62 59 55 51 48 45 42 40 39 38 38 37 36 36 36 35 35 34 34 33 33 33 33 33 33 33 33 33 33 34 34 35 36 37 38
78 76 75 74 72 68 64 61 57 53 51 47 44 42 40 38 37 36 36 35 35 34 34 34 34 33 32 31 31 31 31 31 31 31 31 31 31 31 32 33 34 35 36
76 75 73 71 68 64 59 54 51 49 46 44 42 41 39 37 36 35 35 34 34 34 34 34 33 32 31 30 30 30 30 30 30 30 30 30 30 31 32 33 34 35 36
75 73 70 67 63 59 55 51 46 43 42 41 40 39 38 36 35 35 34 33 33 33 33 32 32 31 30 29 29 29 29 29 30 30 30 30 31 32 33 33 35 36 37
72 69 66 63 59 54 50 47 45 42 38 37 37 37 36 35 35 35 33 32 32 32 32 31 30 30 29 29 28 28 29 29 29 30 30 31 31 32 32 33 33 35 36
68 65 62 58 54 50 47 45 43 41 38 36 35 34 34 34 34 34 33 32 31 31 30 30 29 28 28 28 28 28 28 28 29 29 30 30 31 31 31 31 32 32 33
64 60 57 54 50 47 45 43 41 39 37 35 34 33 33 33 32 32 31 31 30 30 30 30 29 29 28 28 28 28 28 28 29 29 29 29 30 30 30 30 30 31 31
59 56 52 50 47 45 43 41 39 37 35 34 33 32 32 32 31 30 30 30 30 30 30 30 29 29 29 29 28 28 28 28 28 28 28 28 29 29 29 30 30 30 30
55 52 49 46 44 42 41 39 37 35 34 33 32 31 32 31 31 30 30 30 30 30 30 30 29 29 29 29 28 28 27 27 27 27 27 28 28 28 28 28 28 28 29
52 49 46 44 42 40 38 37 36 34 33 32 31 31 31 31 31 30 30 30 29 29 29 29 29 29 28 28 27 27 27 26 26 26 26 26 26 26 27 27 27 28 28
49 46 43 41 39 38 37 36 34 33 32 31 30 30 30 30 30 30 30 29 29 28 29 29 29 28 27 27 27 27 26 26 25 26 26 26 26 26 26 27 27 28 28
46 43 40 38 37 36 35 34 33 31 30 30 30 30 30 30 30 30 30 29 28 28 28 29 28 27 27 27 27 26 25 25 24 25 25 25 25 26 26 27 27 28 28
42 39 37 35 34 34 34 32 31 30 29 29 29 29 30 30 30 30 29 29 28 27 27 28 27 27 26 26 25 24 24 24 24 25 25 26 26 27 28 28 28 28 29

GEFSGL_500_meanwind_114.txt.gz
Wind_Speed
48 50 51 53 55 57 58 60 62 64 65 67 68 69 70 72 74 75 76 76 76 76 76 76 76 75 75 76 76 77 77 77 78 74 72 70 70 69 69 69 69 70 69
51 52 54 56 58 60 61 63 64 66 67 68 70 71 73 74 76 76 76 76 76 76 76 75 74 74 75 75 75 74 73 72 72 70 65 63 63 63 63 63 63 64 64
53 55 57 59 61 62 64 65 66 67 69 70 72 73 75 76 76 76 76 76 76 75 74 73 73 73 73 72 72 71 69 67 66 65 61 58 57 57 58 58 58 58 58
55 58 60 62 63 65 66 67 68 69 71 72 74 75 76 76 76 76 76 76 75 74 73 72 72 72 71 69 67 65 63 62 60 59 57 55 54 53 54 53 53 54 53
58 60 62 64 65 66 67 69 70 71 73 74 76 76 76 75 75 75 76 75 74 73 72 71 70 68 66 64 61 59 57 56 55 55 54 52 50 50 50 50 50 49 49
61 63 64 66 67 68 69 70 72 73 75 76 76 76 75 75 76 76 76 75 74 72 70 68 65 62 59 56 55 53 52 52 51 51 50 48 46 46 46 46 46 46 44
63 65 66 67 69 70 71 72 74 75 76 77 76 76 75 76 76 76 75 74 72 69 66 63 59 56 53 52 50 49 48 47 47 47 46 44 43 42 42 42 42 41 40
65 66 68 69 70 71 73 74 76 77 77 77 76 76 76 76 76 74 72 70 67 63 60 57 54 50 49 48 46 44 43 43 43 43 43 42 41 41 41 40 40 40 39
67 68 69 71 72 73 75 76 77 78 78 77 77 76 76 74 73 71 68 64 60 56 53 51 49 46 45 44 43 41 40 40 40 41 41 39 39 38 39 39 39 40 38
68 69 70 72 74 75 76 77 78 78 78 77 76 75 75 72 69 65 62 58 54 51 48 46 44 43 41 40 40 39 39 38 39 38 37 37 37 36 37 37 38 39 38
69 71 72 74 75 77 78 78 78 79 78 77 76 74 71 68 63 59 55 53 50 47 44 42 40 39 38 37 37 38 37 37 37 36 35 35 35 35 35 36 37 37 37
71 72 73 75 77 78 78 78 79 79 78 76 74 70 66 61 56 53 50 49 47 45 42 39 37 37 36 36 36 36 36 35 34 34 33 33 33 33 33 34 34 35 35
72 74 75 76 77 78 78 79 78 78 76 74 70 65 60 54 51 49 47 46 44 43 40 38 37 37 36 36 35 35 34 34 34 33 32 32 32 32 32 33 33 33 33
74 75 76 77 78 78 78 78 77 75 73 69 65 59 54 49 47 45 44 43 42 40 39 37 36 35 35 35 34 34 34 33 33 32 32 31 31 31 31 32 32 32 32
75 77 77 78 78 78 77 76 74 71 68 65 60 55 50 46 44 44 42 40 39 38 36 35 34 34 33 33 33 32 32 32 32 32 31 31 31 31 30 31 31 31 31
77 78 78 78 78 77 76 73 69 65 62 58 55 52 49 46 44 42 41 39 38 37 36 34 33 33 33 33 32 32 32 32 32 32 32 31 31 30 30 30 30 30 29
78 78 78 78 77 75 73 70 65 59 55 53 51 49 47 45 43 42 39 37 36 35 35 34 33 32 32 31 30 30 30 31 31 31 31 31 31 30 30 30 30 30 29
78 78 78 77 75 72 69 65 61 56 51 48 47 46 45 44 42 40 38 35 34 34 34 33 32 32 32 31 31 31 31 30 31 31 31 31 30 30 29 29 29 29 29
77 77 76 74 71 68 64 60 57 54 51 47 44 43 42 41 39 37 36 34 33 33 33 32 32 32 31 31 31 31 31 31 31 30 30 30 30 29 29 29 29 29 29
76 75 73 70 66 63 60 57 55 52 49 46 43 41 39 37 35 34 33 33 32 32 32 31 31 31 31 31 31 30 30 30 30 29 29 29 28 28 28 28 28 28 28
74 72 69 65 62 59 57 55 52 49 46 43 40 39 37 35 33 32 31 31 31 31 31 31 31 31 31 30 29 29 28 29 29 29 28 27 27 27 27 27 27 27 27
71 68 64 61 59 57 55 52 49 46 43 40 37 35 35 34 33 31 31 31 31 31 31 31 31 30 30 29 29 28 28 28 28 27 26 26 26 26 26 25 25 26 26
67 64 61 58 56 54 51 49 46 43 39 37 35 34 33 33 32 31 31 31 31 31 31 31 30 29 29 28 28 28 27 27 26 26 25 25 25 25 25 25 25 25 25
63 60 58 55 53 51 48 45 42 39 36 35 34 33 33 32 31 31 31 31 30 30 30 30 29 29 28 28 27 26 26 26 26 26 26 26 25 25 25 25 25 25 25
60 57 54 52 49 46 43 40 38 35 34 33 33 33 32 31 30 30 30 29 29 29 28 28 28 28 28 27 27 26 25 26 26 26 26 26 26 26 26 26 26 26 26
57 54 51 48 45 43 40 37 35 33 33 32 32 31 31 30 29 28 28 28 28 28 28 28 28 28 27 27 26 26 26 27 27 27 27 27 26 26 26 26 26 26 26

GEFSGL_500_meanwind_120.txt.gz
Wind_Speed
43 45 47 48 49 51 52 54 55 57 59 60 61 63 65 66 67 68 69 70 71 72 74 75 76 77 77 77 78 78 78 79 79 75 74 74 73 73 73 73 73 73 73
46 47 49 50 52 53 55 56 58 60 61 63 64 66 67 68 69 70 71 72 74 75 76 76 77 77 77 77 77 78 78 78 78 75 72 71 71 71 71 70 70 70 69
48 49 51 53 54 56 57 59 61 62 63 65 67 68 69 69 70 72 73 74 75 76 76 77 77 77 77 78 78 78 78 77 76 75 72 71 70 69 69 68 67 66 64
50 51 53 55 57 58 60 61 63 64 66 67 68 69 70 71 73 74 75 76 76 76 77 77 78 79 79 79 78 77 76 74 73 72 70 68 66 65 64 63 61 60 58
52 54 55 57 59 60 62 63 65 66 67 68 69 71 72 73 75 76 76 76 76 76 77 78 78 79 78 77 75 73 71 69 67 66 64 62 59 58 57 56 55 53 52
54 56 57 59 60 62 63 65 66 67 68 70 71 72 74 75 76 77 77 77 78 78 78 78 77 75 73 71 69 67 65 63 61 59 56 54 52 51 49 49 48 47 45
56 57 59 60 62 63 65 66 67 68 70 72 73 74 75 76 77 77 78 79 78 78 77 76 73 69 67 64 62 60 58 56 55 53 51 48 46 44 43 42 42 42 41
57 59 60 62 63 65 66 68 69 70 72 73 74 76 77 77 78 78 79 79 78 76 74 71 67 63 61 59 56 53 51 50 49 48 46 43 41 40 40 39 39 38 37
59 60 62 64 65 67 68 69 71 72 73 75 76 77 77 77 78 79 79 78 76 72 68 65 61 58 55 53 52 49 47 45 45 44 41 39 38 37 37 37 36 35 33
60 62 64 65 67 68 69 71 73 74 76 77 77 78 78 78 78 78 77 76 72 67 62 59 56 53 50 49 48 46 44 42 41 39 38 36 36 36 36 35 34 33 32
61 63 65 66 68 70 71 73 75 76 77 78 78 78 78 78 77 76 74 71 67 62 57 53 50 49 47 46 45 44 42 40 37 36 35 35 35 34 34 34 34 33 31
63 65 66 68 70 72 74 75 77 78 79 79 78 77 76 76 74 72 69 66 62 58 54 50 48 46 45 43 42 41 40 38 36 34 33 33 33 33 33 33 33 32 31
64 66 68 69 71 74 76 77 78 80 80 79 78 77 75 73 70 67 64 60 57 54 51 48 46 44 42 41 40 39 37 36 35 33 33 32 32 32 32 32 32 32 31
66 68 69 71 74 76 78 79 80 80 80 79 77 76 73 69 65 62 59 56 53 51 49 46 43 42 41 39 37 36 35 35 34 32 31 31 31 32 32 32 32 32 31
68 70 72 74 77 78 79 80 80 79 79 78 76 73 70 65 61 59 56 53 50 48 45 42 40 39 37 35 34 34 34 33 32 31 30 30 30 30 31 31 32 31 31
71 73 75 77 78 79 80 79 78 78 77 74 72 69 66 63 60 56 53 50 48 46 43 40 37 36 34 33 32 32 32 31 31 30 29 29 29 28 29 29 29 30 30
74 76 77 79 80 80 80 79 77 74 71 68 66 64 62 60 57 53 50 47 45 42 40 37 35 33 32 32 31 30 30 30 30 29 28 29 28 28 28 28 28 28 28
76 78 79 80 80 80 79 78 76 72 66 61 60 60 59 57 53 50 47 44 41 38 37 35 33 32 31 31 30 30 29 29 29 28 28 28 27 27 27 27 27 27 27
78 80 80 80 79 79 78 75 72 67 63 60 57 56 55 53 49 46 44 41 38 35 35 34 32 31 31 30 29 29 28 28 28 28 27 27 27 27 27 27 27 26 26
80 80 80 79 78 77 74 71 66 62 60 59 57 54 51 48 44 41 39 38 35 34 33 32 31 30 30 29 29 28 28 27 27 27 26 27 27 27 26 26 25 25 24
80 80 79 78 76 73 70 65 62 60 59 56 54 51 48 45 41 38 36 34 34 33 32 31 30 30 30 29 28 28 27 27 27 26 26 26 26 25 25 25 25 24 24
80 79 77 75 72 68 65 62 60 58 56 54 51 48 45 42 39 36 34 33 33 32 31 31 30 30 30 29 28 27 27 26 26 26 26 25 25 25 25 25 25 25 25
78 76 73 70 67 64 61 59 57 55 53 51 48 44 41 39 37 35 33 32 32 31 31 31 30 30 29 29 28 28 27 26 27 26 26 26 25 25 25 25 25 25 25
75 72 69 66 63 60 58 56 54 52 50 46 43 40 38 37 35 33 32 31 30 30 30 30 30 29 29 28 28 27 27 26 26 26 26 25 25 25 25 25 25 25 25
71 68 65 62 59 57 55 52 50 48 45 42 39 37 36 35 33 32 31 30 30 29 29 29 28 28 28 28 28 27 26 26 26 26 26 26 26 26 26 26 26 25 25
66 64 61 58 56 53 51 48 46 43 41 38 37 36 35 33 32 31 30 29 29 29 29 28 28 28 28 28 28 27 26 26 26 27 27 27 27 27 27 27 27 27 26

GEFSGL_500_meanwind_126.txt.gz
Wind_Speed
43 44 45 46 47 48 49 50 52 53 54 55 56 58 59 61 62 63 65 66 67 68 70 71 72 73 74 75 77 78 79 80 81 78 79 79 79 79 79 79 79 78 77
44 45 46 48 49 50 51 52 54 55 56 57 59 60 62 63 65 66 67 68 69 70 72 73 74 76 77 78 79 80 81 82 83 82 80 80 80 80 79 78 77 76 75
46 47 48 49 51 52 53 54 56 57 58 60 61 63 65 66 67 68 69 70 71 72 74 75 76 78 78 79 80 81 82 83 84 83 80 79 77 76 75 74 73 71 70
47 49 50 51 52 53 55 56 58 59 61 62 64 66 67 68 69 70 71 72 73 74 76 77 79 80 80 81 82 82 83 83 82 80 78 75 72 70 69 68 66 65 63
48 50 51 52 54 55 56 58 60 61 63 64 66 68 69 70 71 72 73 74 75 76 78 79 80 80 81 82 82 82 81 80 78 76 73 69 66 64 62 61 60 57 55
50 51 53 54 55 57 58 60 62 63 65 67 68 69 70 72 73 74 75 77 78 79 79 80 80 81 81 81 80 79 78 76 73 70 67 64 60 57 56 54 53 51 48
52 53 55 56 57 59 60 62 64 65 67 68 69 70 72 73 75 76 78 79 79 80 80 80 80 80 80 79 76 74 72 69 67 65 61 57 54 52 50 48 46 44 42
53 55 56 58 59 61 62 64 66 67 68 69 70 72 74 75 77 79 80 80 80 80 80 80 79 78 76 74 72 69 66 62 60 58 56 52 50 48 46 44 42 40 37
55 57 58 59 61 63 64 66 67 68 69 71 73 74 76 77 79 80 81 80 80 79 78 78 77 74 71 69 67 64 60 57 55 53 51 48 45 43 42 40 38 36 33
57 58 59 61 63 64 65 67 68 70 71 73 75 77 78 80 80 81 81 81 80 78 76 74 71 69 66 64 63 60 56 53 51 48 46 43 41 39 38 38 36 34 32
58 59 61 62 64 65 67 69 70 72 74 76 77 78 80 81 81 81 81 81 80 76 73 68 65 64 62 61 59 56 53 50 48 44 41 38 37 37 36 36 35 33 30
59 60 61 63 65 67 69 71 73 75 77 78 79 79 80 80 80 80 80 79 76 73 68 65 62 61 60 57 54 51 49 47 44 40 37 35 34 34 33 33 32 31 30
60 61 63 65 67 69 71 73 75 78 79 80 81 81 79 78 78 78 77 74 71 68 65 62 61 59 56 52 49 47 45 42 39 35 33 32 31 31 31 30 29 29 29
61 63 65 67 69 71 73 75 78 79 80 81 81 80 79 78 76 75 72 69 66 63 61 59 57 54 51 48 45 43 40 37 34 32 30 29 29 29 29 28 28 27 27
63 65 67 69 71 73 75 78 79 80 81 82 81 80 80 77 74 71 69 65 61 59 58 55 53 49 46 44 41 39 36 34 31 30 29 28 27 27 27 27 27 26 26
65 67 70 72 74 76 78 79 80 80 80 80 80 80 78 75 71 67 64 61 58 57 56 53 49 46 43 40 37 34 33 31 30 29 28 27 27 26 26 26 26 26 25
68 70 72 75 77 79 80 81 80 79 77 77 77 76 74 71 67 63 60 58 56 55 53 50 46 43 40 37 34 32 30 30 29 29 28 27 27 26 25 25 25 25 24
70 73 75 77 79 81 81 81 81 79 76 74 73 71 69 66 62 60 58 56 54 53 50 46 43 40 37 35 32 30 30 29 29 28 27 27 26 26 25 24 24 23 23
73 76 78 80 81 82 81 80 79 77 76 73 69 65 63 61 58 57 56 55 52 49 46 42 39 37 35 33 31 30 29 29 28 28 27 27 26 25 24 24 24 23 23
76 78 80 81 82 81 80 79 77 75 73 70 65 62 59 57 55 54 53 51 49 45 42 39 37 36 34 32 30 29 29 28 28 27 26 26 25 24 24 23 23 23 22
78 80 81 82 81 80 78 76 74 72 68 64 61 59 57 55 53 51 50 47 44 41 39 36 35 34 32 31 29 29 28 28 27 27 26 25 25 24 23 22 22 22 22
80 81 82 81 79 77 75 73 71 67 64 61 58 56 54 53 51 49 46 43 40 39 37 35 33 32 31 29 29 29 28 28 27 26 25 25 24 23 23 22 22 21 22
82 81 80 78 77 75 72 69 66 63 60 58 55 53 51 49 48 45 42 40 38 37 35 34 32 31 30 30 30 29 28 28 27 26 25 24 24 23 23 22 22 21 22
81 80 78 76 74 72 68 64 61 59 57 54 52 50 48 46 44 42 40 38 36 35 34 33 32 31 30 30 30 29 28 27 26 25 25 24 24 23 23 22 22 22 21
79 76 74 73 70 67 63 60 57 55 53 51 49 47 45 44 42 40 38 36 35 34 33 32 32 31 30 30 29 28 27 26 26 25 25 25 24 24 24 23 23 22 22
74 73 71 69 65 61 58 56 53 51 49 47 46 44 43 42 40 38 37 35 34 33 33 32 32 31 30 29 28 28 27 27 26 26 25 25 25 25 25 24 24 24 23

GEFSGL_500_meanwind_132.txt.gz
Wind_Speed
37 38 39 41 42 43 44 45 46 47 48 50 51 52 54 55 56 57 59 60 62 63 65 65 66 67 68 69 70 72 73 75 75 74 76 78 80 81 82 83 84 84 84
39 40 41 43 44 44 45 46 48 49 50 52 53 54 56 57 58 60 61 63 64 65 66 66 67 69 70 72 73 75 77 78 79 78 78 79 80 82 83 83 83 83 82
40 42 43 44 44 46 47 48 49 50 52 53 55 56 58 59 61 62 64 65 66 66 67 68 70 71 73 75 76 78 79 80 80 80 79 80 81 82 82 81 79 78 76
41 42 43 44 45 46 47 49 50 52 54 55 57 58 60 62 63 65 66 66 67 68 69 70 72 74 76 78 79 79 80 79 80 80 80 79 79 77 76 74 71 69 68
42 43 44 45 46 47 49 50 52 54 55 57 59 61 62 64 65 66 67 68 68 69 71 73 75 76 78 79 79 79 79 79 79 78 78 76 73 71 69 67 65 63 61
43 44 44 46 47 49 51 52 54 56 58 60 61 63 64 65 67 68 68 69 70 71 73 75 77 78 78 78 78 77 77 77 77 76 74 71 67 66 64 62 61 58 55
43 44 46 47 49 51 52 54 56 58 60 62 63 65 66 67 68 69 70 72 73 74 76 77 77 77 77 77 75 74 74 74 74 73 70 66 64 62 61 58 56 53 50
44 45 47 49 50 52 54 56 58 60 62 63 65 66 66 67 69 71 72 74 75 76 77 77 76 76 75 74 73 73 72 71 69 67 65 63 61 58 56 54 51 47 43
45 47 48 50 52 54 56 58 60 62 63 64 65 66 67 69 71 73 74 75 76 76 76 76 75 74 73 73 73 71 69 66 64 62 61 59 56 53 51 48 45 42 38
47 48 50 52 54 56 58 60 61 63 64 65 66 67 69 70 72 74 76 77 77 76 75 74 73 72 71 71 71 69 66 62 60 58 56 54 51 48 45 43 40 37 34
48 49 51 53 55 57 59 61 63 64 65 66 67 69 71 72 74 76 77 78 77 76 74 72 71 70 69 69 68 65 62 59 56 54 51 48 45 42 40 38 36 33 30
49 51 53 55 57 58 60 62 63 65 66 68 70 71 72 74 75 76 76 77 77 75 72 71 69 68 67 65 62 60 57 56 53 50 46 43 41 38 35 33 31 30 28
51 53 54 56 57 59 61 63 65 67 68 70 72 73 74 75 76 76 76 76 74 73 70 69 68 66 63 60 57 55 54 52 49 45 42 40 37 34 32 30 28 27 27
52 54 55 57 59 61 63 64 66 69 71 73 74 75 76 76 77 77 76 73 71 69 68 67 65 61 58 55 53 52 50 47 44 41 38 35 33 31 29 28 27 26 26
54 56 57 59 61 63 65 67 69 71 73 75 76 77 78 78 77 76 74 71 69 67 66 63 59 55 53 51 50 49 46 43 41 38 35 32 30 29 28 26 26 25 25
56 57 59 61 63 65 67 69 70 73 74 76 78 79 79 78 76 73 71 68 66 64 62 58 55 53 51 49 47 45 42 40 37 35 33 30 29 27 26 26 25 24 24
58 60 62 64 66 68 70 72 73 74 75 77 78 79 77 75 73 70 67 65 63 61 58 55 53 51 49 47 44 41 39 37 35 33 30 29 27 26 26 25 24 23 23
60 62 64 67 69 71 73 74 76 77 77 77 77 76 74 72 69 67 65 62 59 56 54 52 50 49 46 43 40 38 36 34 33 31 29 27 26 25 25 24 24 23 22
62 65 67 69 71 73 75 76 77 77 77 76 74 72 70 67 65 63 61 58 55 52 51 49 48 45 42 39 37 35 33 31 30 29 27 26 25 25 24 23 23 22 20
64 67 69 71 73 74 75 76 76 75 74 73 70 68 65 63 61 58 55 53 51 49 48 46 44 41 38 36 34 32 30 29 28 27 26 25 25 24 23 22 21 20 19
66 68 70 72 74 75 75 75 73 72 70 69 67 64 62 59 56 53 51 49 48 46 44 42 40 37 36 34 32 30 28 28 27 26 25 25 24 23 22 21 20 19 19
68 69 71 73 74 74 73 71 69 68 67 66 63 59 57 55 53 50 49 47 45 43 42 39 37 36 34 32 30 28 27 27 27 26 25 24 23 22 21 20 20 19 19
69 71 73 73 73 71 68 66 66 66 64 61 58 56 54 52 50 48 47 45 43 41 40 38 36 35 33 31 30 28 27 27 26 25 24 23 23 22 21 20 20 19 19
71 72 73 71 69 67 66 65 64 63 60 58 56 53 51 50 48 46 45 43 41 40 38 37 36 34 32 31 29 28 27 27 26 25 24 23 22 22 21 21 20 20 20
71 71 70 68 66 64 63 62 61 60 57 55 53 51 49 48 46 45 43 41 39 38 37 36 35 33 32 31 29 28 28 27 26 25 24 23 23 22 21 21 20 20 20
69 69 67 65 63 62 61 61 59 57 55 52 51 49 48 46 45 43 41 39 37 36 35 35 34 32 31 29 28 27 26 26 25 25 24 23 22 22 22 21 21 21 20

GEFSGL_500_meanwind_138.txt.gz
Wind_Speed
38 38 39 39 40 40 41 42 44 45 46 47 48 49 50 51 52 53 54 56 57 58 60 61 62 63 63 64 64 65 66 68 68 66 68 70 71 72 72 72 73 75 76
39 39 39 40 40 41 42 43 44 46 47 48 49 50 52 53 54 55 57 58 59 60 61 62 63 64 64 65 66 67 68 70 71 70 69 70 70 71 71 72 73 75 75
39 39 40 40 41 42 43 44 45 47 48 49 50 52 53 54 56 57 59 60 61 62 63 64 65 66 66 67 68 69 70 71 72 72 70 69 69 70 71 72 73 73 74
39 40 40 41 42 43 44 45 46 47 49 50 52 53 55 56 58 59 60 61 62 63 64 66 67 67 68 69 70 71 72 72 73 72 71 69 69 71 72 72 72 72 72
40 41 41 42 43 44 45 46 47 48 50 51 53 54 56 58 60 61 62 63 64 65 66 67 68 69 70 71 72 72 73 73 73 72 71 70 70 71 71 71 71 69 67
41 42 43 43 44 45 46 47 48 50 51 52 54 55 57 59 61 62 64 65 66 66 67 68 69 70 71 72 73 74 74 74 73 72 72 71 70 70 70 70 69 66 62
43 43 43 44 45 46 47 48 50 51 52 53 55 57 59 61 62 64 65 66 66 67 69 70 71 72 73 74 75 74 73 73 73 72 71 70 70 69 69 67 64 61 57
43 44 45 45 46 47 48 49 51 52 53 55 57 59 61 62 63 65 66 67 68 69 71 73 74 74 75 76 76 74 72 71 70 71 71 70 69 67 65 62 59 55 51
44 45 45 46 47 48 49 51 52 54 55 57 59 61 62 63 64 66 67 68 69 71 73 74 75 76 76 77 76 73 70 68 69 70 69 67 65 62 59 56 53 50 47
45 46 46 48 49 49 50 52 53 55 56 58 60 61 62 63 65 67 68 70 72 73 73 74 75 76 75 74 72 70 68 67 67 66 65 62 58 55 54 52 49 46 43
46 47 48 49 49 50 52 53 55 56 58 60 61 61 63 64 66 68 70 72 73 73 74 74 74 74 73 71 69 68 67 66 65 62 59 55 52 50 49 47 45 42 39
46 47 48 49 50 52 53 55 56 58 60 61 62 62 63 65 67 69 71 72 73 74 74 74 73 71 69 67 66 65 64 63 61 57 52 50 48 46 45 43 40 38 36
48 48 49 50 51 53 55 56 58 60 61 62 63 63 64 65 67 69 71 72 73 74 74 72 70 68 66 64 63 62 61 58 54 51 48 46 45 43 41 38 35 34 32
49 49 50 51 53 55 56 58 59 60 62 63 64 64 65 66 68 70 71 72 72 73 72 69 66 64 62 61 59 57 55 51 49 46 45 43 42 39 36 34 32 31 29
49 50 51 53 55 56 57 59 60 61 63 64 65 66 67 68 69 70 71 71 71 71 69 65 62 60 58 57 54 52 49 47 45 43 42 40 37 35 33 31 30 29 27
50 52 53 55 56 57 59 60 61 63 64 65 67 68 69 69 69 69 70 70 70 68 65 61 59 57 55 53 50 48 46 44 42 40 38 36 34 32 30 29 29 27 26
52 53 55 56 58 59 61 62 62 63 65 66 68 69 69 68 69 69 69 68 66 64 61 58 57 55 52 50 47 45 44 42 39 37 35 33 31 30 28 28 26 25 24
54 55 57 58 60 61 63 64 65 65 66 66 67 68 68 68 69 68 67 65 62 60 58 57 55 53 50 47 45 43 41 39 37 34 33 31 30 28 27 26 24 23 22
56 57 59 60 62 63 64 65 66 67 68 67 67 66 67 67 67 65 64 62 60 58 57 55 53 50 47 45 43 41 38 36 34 33 31 30 29 27 26 24 23 21 20
57 59 61 62 63 65 66 67 67 68 68 67 67 66 66 65 64 63 62 61 60 58 55 52 50 48 45 43 40 38 36 34 33 32 31 29 27 26 25 23 22 20 19
59 61 62 63 65 66 67 67 68 68 67 67 66 66 65 64 63 62 60 59 58 56 53 50 47 45 42 40 38 36 34 33 32 30 29 28 26 25 24 22 20 20 19
61 62 63 65 67 67 67 67 67 67 67 66 65 64 63 63 62 61 58 57 55 52 50 47 44 42 40 38 36 34 32 31 30 29 28 27 25 24 23 21 20 19 18
62 64 65 67 67 66 66 67 67 66 65 64 63 63 62 62 60 57 55 53 51 48 45 43 41 39 38 36 35 33 31 30 29 28 27 26 24 23 22 21 20 19 17
64 66 67 66 66 66 66 66 65 64 63 63 62 62 60 58 56 54 52 49 46 44 42 40 38 37 36 35 33 32 31 30 29 28 27 25 24 23 22 20 19 18 17
65 67 66 65 65 65 65 64 63 62 62 61 61 59 56 54 52 50 47 45 43 41 39 38 37 36 35 34 33 32 31 30 29 27 26 24 22 21 20 19 19 18 18
66 66 65 65 65 64 63 62 61 60 59 58 57 54 52 50 48 46 44 43 41 39 38 37 37 36 35 34 33 32 30 29 27 25 24 22 21 20 19 19 18 18 18

GEFSGL_500_meanwind_144.txt.gz
Wind_Speed
35 35 36 37 37 38 38 39 40 41 42 43 44 45 45 46 47 48 50 51 52 53 54 56 57 58 58 59 60 61 62 64 64 63 65 66 67 68 69 70 71 72 72
35 36 36 37 38 38 39 40 41 42 43 44 45 46 46 47 49 50 51 52 54 55 56 57 58 58 59 60 61 62 64 66 67 66 66 68 69 71 72 73 73 73 72
35 35 36 37 38 39 40 41 42 43 44 45 46 46 47 49 50 52 53 54 55 56 57 58 58 59 60 62 63 65 66 68 69 70 69 70 71 72 74 74 73 72 71
36 36 37 38 39 40 41 41 42 43 44 45 46 47 49 50 52 53 54 55 55 56 57 58 60 61 62 63 65 66 68 70 71 72 71 71 72 73 74 72 70 70 71
37 37 37 38 39 40 41 42 42 44 45 46 47 49 50 51 53 54 55 55 56 57 59 60 61 62 64 65 67 68 70 71 72 73 72 72 72 72 71 70 69 69 69
37 37 38 39 39 40 41 43 44 45 46 47 48 49 50 52 54 55 55 56 57 59 60 61 62 63 65 66 68 69 71 72 73 73 73 72 71 70 69 69 69 68 66
37 38 39 40 40 41 42 43 45 46 47 48 49 50 52 53 55 55 56 57 59 60 61 62 63 64 66 67 68 69 71 72 73 74 73 71 70 68 68 68 67 66 64
38 39 40 41 42 42 43 44 46 47 49 50 51 52 53 54 55 56 57 58 60 61 62 63 63 65 66 68 69 69 70 71 73 73 73 70 69 68 67 66 64 62 59
40 40 41 42 43 44 45 46 47 48 50 51 53 54 54 55 56 57 58 60 61 62 62 63 64 65 67 68 69 70 70 70 71 71 70 68 67 65 64 61 59 57 52
40 41 42 43 44 45 46 47 49 50 51 52 54 54 55 56 57 58 59 61 61 61 62 63 65 66 67 68 68 69 69 70 69 68 66 64 63 61 58 57 55 51 48
41 42 43 44 45 46 47 48 49 51 52 53 54 55 56 57 58 59 60 62 62 62 63 64 65 66 66 67 68 69 70 69 67 64 61 59 58 57 54 52 50 48 44
42 43 44 45 46 47 48 49 51 52 54 54 55 55 56 57 58 59 61 63 63 63 64 64 64 65 66 67 69 69 68 66 63 60 58 56 55 53 50 48 46 44 40
44 45 45 46 47 48 50 51 52 54 55 55 55 55 56 57 59 61 62 63 63 64 64 64 64 65 66 67 67 66 64 62 60 58 56 54 51 48 46 43 41 39 36
45 46 46 47 49 50 52 53 54 56 56 56 56 56 57 59 61 62 63 63 64 64 64 64 65 65 67 66 65 63 61 59 58 56 53 50 47 44 42 40 38 35 33
47 48 48 49 50 52 53 54 56 57 57 57 57 58 59 61 62 64 64 64 64 64 64 64 65 65 65 63 61 60 58 57 55 53 51 47 44 42 40 38 35 32 31
48 49 50 51 52 53 54 55 57 58 58 59 60 61 62 63 64 64 65 65 65 65 65 65 65 64 63 61 59 58 56 55 53 50 47 44 42 39 37 35 32 30 29
49 50 51 52 54 55 56 58 58 59 59 60 62 63 64 64 64 65 64 64 64 64 65 65 64 62 61 58 57 55 54 51 49 46 43 41 38 36 34 31 30 28 27
50 51 52 54 56 57 58 59 60 60 60 61 63 64 64 65 65 64 64 63 63 64 64 63 61 60 58 56 53 51 48 46 44 41 39 37 35 33 31 29 28 26 25
51 53 54 56 57 58 60 61 61 62 62 63 64 64 65 65 64 64 63 63 63 62 61 60 58 56 53 51 49 46 44 41 40 37 35 34 32 31 29 28 26 25 23
53 54 55 57 58 60 61 62 62 63 64 64 64 64 64 64 63 62 62 62 61 59 58 56 53 51 49 47 44 42 40 38 36 35 33 32 31 29 28 26 25 23 21
54 55 57 59 60 61 62 62 63 64 64 63 63 63 63 62 60 60 60 59 58 56 54 51 49 47 45 43 41 39 38 37 35 34 32 31 29 28 26 25 23 21 20
56 57 59 60 61 62 62 62 62 62 62 61 61 61 60 60 59 59 58 56 54 52 50 47 46 45 43 41 39 38 37 35 33 32 30 29 28 26 24 22 21 19 18
57 58 59 60 60 60 60 60 61 60 60 60 60 59 58 58 57 56 55 53 51 48 46 45 44 43 41 40 38 37 35 34 32 31 29 28 26 24 23 21 19 18 17
57 58 59 59 59 59 59 59 59 59 59 59 58 57 56 55 54 53 52 49 47 46 45 44 43 42 40 39 38 36 35 33 31 29 28 26 24 23 21 19 18 16 16
57 58 58 58 58 58 59 58 58 58 58 58 57 55 54 53 52 50 48 46 44 44 43 43 42 40 39 38 37 35 34 32 29 27 26 24 23 21 19 18 17 16 15
56 57 57 57 58 58 58 57 57 57 57 56 55 53 52 51 50 48 45 43 43 42 41 40 39 37 36 35 34 33 31 29 28 26 25 23 22 20 18 17 17 16 15

GEFSGL_500_meanwind_150.txt.gz
Wind_Speed
35 35 36 36 37 38 38 39 40 41 41 42 43 43 44 44 45 47 47 49 50 51 51 52 53 54 55 55 56 57 58 59 60 59 61 62 63 64 65 65 66 66 67
35 36 36 37 38 38 39 40 41 41 42 43 43 44 44 45 46 47 48 50 51 51 52 52 53 54 55 56 58 59 60 61 62 62 62 63 64 65 66 66 67 68 68
35 36 37 38 38 39 40 40 41 42 43 43 43 44 45 46 47 48 49 50 51 51 52 53 54 55 57 58 59 60 62 63 64 65 64 64 64 66 66 67 68 69 70
35 36 37 38 38 39 40 41 42 42 43 43 44 45 46 47 48 49 50 51 51 52 53 54 56 57 58 60 61 62 63 64 65 66 65 65 65 66 67 68 68 69 70
36 37 38 38 39 39 40 41 42 43 43 44 45 46 47 48 48 49 50 51 52 53 54 56 57 58 59 61 62 63 64 65 66 66 66 66 66 66 67 68 68 69 69
37 38 39 39 40 40 41 42 42 43 43 44 45 46 47 48 49 50 51 52 53 54 55 56 57 59 60 61 62 64 65 66 66 66 66 66 66 66 67 68 69 68 67
38 39 40 40 40 41 41 42 43 43 44 45 46 47 48 49 50 51 52 53 54 55 56 57 58 59 61 62 64 65 66 66 67 67 66 65 66 67 68 68 68 67 65
39 40 40 40 41 42 42 43 44 44 45 46 47 48 49 50 51 52 53 54 55 56 57 58 59 61 62 64 65 65 65 65 66 66 66 66 67 68 68 67 66 65 63
40 40 41 41 42 43 43 44 45 46 47 48 48 49 50 51 52 54 55 56 56 57 58 59 61 62 64 65 66 65 65 65 65 65 66 66 67 67 67 66 65 63 61
40 41 42 42 43 44 45 45 46 47 48 48 49 50 51 52 54 55 56 57 58 58 60 61 62 64 65 65 66 65 65 65 65 65 66 66 65 65 66 65 63 61 60
41 42 42 43 45 45 46 47 47 48 49 49 50 51 53 54 55 57 58 59 59 60 61 62 63 65 65 65 65 65 65 66 65 65 65 64 64 64 63 62 60 59 58
42 43 44 45 46 46 47 48 49 49 50 51 52 53 54 55 57 58 59 60 60 61 62 63 65 65 65 65 65 66 66 66 66 65 63 63 62 61 60 58 58 57 55
43 44 45 46 47 47 48 49 49 50 51 52 53 54 55 56 58 59 59 60 61 62 63 65 65 65 64 64 65 65 65 65 64 63 62 60 59 58 56 56 55 53 51
44 45 46 47 47 48 49 50 50 51 52 53 54 55 56 58 58 59 59 60 61 62 64 64 64 64 64 64 64 64 63 63 61 60 58 57 56 55 53 52 50 47 44
45 46 47 48 48 49 50 51 52 53 54 55 56 57 58 58 58 59 60 61 62 63 64 63 63 63 62 63 62 62 61 59 58 57 56 55 53 51 49 46 43 40 38
46 47 48 48 49 50 51 52 53 54 55 56 58 59 59 59 60 60 61 62 63 64 63 63 62 62 62 61 60 59 58 56 56 55 53 51 48 45 42 40 38 36 34
47 48 49 50 51 51 52 53 54 55 56 57 58 59 59 60 60 61 61 62 63 63 62 62 61 61 60 59 58 57 55 54 53 51 48 46 43 41 39 37 35 33 31
48 49 50 51 52 52 53 54 55 56 57 58 58 59 59 60 61 61 62 62 62 62 61 61 60 60 59 57 56 54 52 50 48 46 44 41 39 38 37 35 33 31 28
49 50 51 52 52 53 54 55 56 57 58 58 58 58 59 60 61 61 62 62 61 60 60 59 59 58 57 55 53 50 48 46 44 42 40 38 37 36 35 33 30 28 26
50 51 51 52 53 54 55 56 57 58 58 57 58 59 60 60 61 61 61 60 60 59 58 58 58 57 54 51 49 47 45 43 41 39 37 36 35 34 32 30 28 26 24
51 51 52 53 54 55 56 57 57 57 57 58 59 60 61 61 61 60 59 58 58 58 58 57 56 53 51 48 46 44 42 40 38 36 35 34 33 32 30 28 26 24 22
51 52 52 54 55 56 56 57 57 57 58 59 60 60 61 61 60 58 57 57 57 57 57 56 53 50 47 45 43 42 39 37 36 35 34 32 31 30 28 26 25 22 20
52 52 53 54 56 56 57 57 57 58 59 59 60 60 60 59 59 58 57 57 56 56 55 52 49 46 44 43 41 39 37 35 34 33 32 31 29 28 26 25 23 20 18
52 53 54 55 56 56 57 57 57 58 58 59 59 59 59 58 57 57 56 55 54 53 51 49 46 43 42 40 39 38 36 35 34 32 31 29 28 26 24 22 20 18 16
53 54 55 55 56 56 56 57 57 57 58 58 58 58 57 56 55 54 53 52 50 49 48 46 43 40 39 38 37 37 36 34 32 31 30 28 26 24 22 21 19 17 15
53 54 54 55 55 56 56 56 56 57 56 56 56 55 54 53 52 51 50 49 48 47 45 43 40 38 37 36 36 35 34 32 31 30 29 26 24 22 21 19 18 16 14

GEFSGL_500_meanwind_156.txt.gz
Wind_Speed
32 32 32 33 33 34 35 36 36 37 38 38 39 39 40 41 42 43 43 44 45 46 46 48 49 49 50 50 51 53 54 55 55 55 57 58 59 60 62 63 64 65 66
33 33 33 34 34 35 36 37 37 38 39 39 40 40 41 42 43 44 44 45 46 47 48 49 49 50 51 52 53 54 55 56 57 57 58 60 61 62 64 65 66 67 67
34 34 34 35 35 36 37 38 39 39 40 40 41 41 42 43 44 45 45 46 47 48 49 49 50 51 52 53 55 56 57 58 59 60 60 62 63 65 66 67 68 68 67
35 35 36 36 36 37 38 39 39 40 41 41 42 43 43 44 45 46 46 47 48 49 49 50 51 52 54 55 56 57 58 59 60 61 62 64 65 66 68 68 68 68 67
36 37 37 37 37 38 39 39 40 41 41 42 43 44 45 45 46 47 47 48 49 50 50 51 53 54 55 56 56 57 59 60 61 63 64 65 66 68 69 69 69 67 66
37 38 38 38 38 39 40 40 41 41 42 43 44 45 45 46 47 47 48 49 50 50 52 53 54 54 55 56 57 59 60 61 63 64 65 67 68 69 69 68 67 66 64
38 39 39 39 40 40 41 41 41 42 43 44 45 45 46 47 47 48 49 50 50 51 53 54 55 55 56 57 58 60 61 62 64 65 67 67 68 68 68 66 65 64 63
39 39 40 41 41 41 41 42 43 43 44 45 46 46 47 48 49 49 50 51 51 53 54 55 56 57 58 59 60 61 62 63 65 66 67 67 67 66 66 65 64 63 62
40 40 41 42 42 42 43 43 44 45 45 46 46 47 48 48 49 50 51 52 53 54 55 56 57 58 59 60 61 62 62 63 64 65 65 65 65 65 64 64 63 62 60
40 41 41 42 43 43 43 44 45 45 46 47 47 48 49 49 50 51 53 54 54 55 56 57 58 59 59 60 62 62 62 63 63 63 64 64 63 63 62 61 60 59 58
41 41 42 43 43 43 44 45 45 46 47 47 48 49 50 51 52 53 54 55 56 56 57 57 58 59 60 61 62 62 62 63 63 63 63 62 62 61 60 58 57 56 55
41 42 43 43 43 43 44 45 46 46 47 48 49 50 51 52 53 54 55 56 56 57 57 58 58 59 60 61 61 61 62 63 63 63 62 61 60 59 57 56 55 54 53
41 42 43 43 44 44 45 46 46 47 48 49 50 51 52 53 54 55 55 56 57 57 58 58 58 59 60 60 61 61 62 62 63 62 61 60 58 57 55 54 52 51 50
42 42 43 44 44 45 45 46 47 48 49 50 51 52 52 53 54 55 55 56 57 58 58 58 59 60 60 60 61 61 62 62 62 61 60 58 56 55 53 51 49 47 45
42 43 44 44 44 45 45 46 48 49 50 51 51 52 53 54 54 55 56 57 57 58 58 58 59 60 60 60 61 61 62 61 61 60 58 56 54 53 51 48 46 44 41
43 43 44 44 45 45 46 47 48 49 50 51 52 53 54 54 55 55 56 57 57 58 59 59 59 60 60 60 61 61 61 60 59 58 56 54 52 50 47 45 42 40 38
43 44 44 45 46 46 47 48 48 49 51 52 53 54 54 55 55 56 56 57 58 59 59 59 60 60 60 60 61 61 60 59 57 55 53 51 48 45 43 40 38 36 35
44 44 45 46 46 47 48 49 49 50 51 52 53 54 54 55 55 56 57 58 59 59 59 60 59 59 60 60 60 59 58 56 54 51 49 46 43 41 38 36 35 33 31
44 44 45 46 46 47 48 49 50 51 52 52 53 53 54 55 56 57 58 59 59 59 59 59 59 59 59 59 58 57 55 52 50 47 44 41 39 37 35 33 32 30 28
44 44 45 46 46 47 48 50 51 51 52 52 53 54 54 55 56 58 59 59 59 59 59 58 58 58 57 57 55 53 51 48 46 43 40 37 35 34 32 31 30 28 26
43 44 45 46 47 48 49 50 51 51 52 53 53 54 55 56 57 58 59 59 59 58 57 57 56 55 54 53 51 49 47 45 42 39 36 34 33 32 30 29 28 26 25
44 45 46 47 48 49 50 51 51 51 52 53 54 54 56 57 57 58 58 58 57 56 54 53 52 51 50 50 48 46 44 41 38 35 33 32 31 30 29 28 26 25 23
45 46 47 47 48 50 50 51 51 52 52 53 54 55 56 56 57 57 56 55 54 53 51 50 49 48 48 47 45 43 40 37 35 33 31 30 29 29 28 26 24 23 22
46 46 47 48 49 49 50 50 51 52 53 54 55 55 55 56 56 55 53 52 51 50 49 48 47 46 46 44 42 40 37 34 33 31 30 29 28 27 26 24 23 21 20
46 46 47 47 48 49 49 50 51 53 54 54 54 55 55 54 53 52 50 49 48 47 46 46 46 45 44 42 40 37 35 33 32 30 29 28 27 26 24 22 21 20 19
45 46 47 47 48 48 49 50 51 52 53 53 53 53 53 52 50 49 48 47 46 45 45 45 44 43 41 40 37 35 33 32 31 30 28 26 25 23 22 21 20 19 17

GEFSGL_500_meanwind_162.txt.gz
Wind_Speed
38 38 37 37 37 36 36 36 36 37 37 37 38 38 39 39 39 40 41 42 42 43 44 45 46 47 48 49 50 51 52 54 54 52 53 54 55 56 57 58 59 60 61
39 39 38 37 37 37 37 37 38 38 38 39 39 40 40 40 40 41 42 43 44 44 45 46 47 47 48 50 51 52 53 55 55 54 54 56 57 58 59 59 60 62 63
40 39 39 38 38 38 38 38 38 39 39 40 40 41 41 41 41 42 43 44 45 46 46 47 47 48 50 51 52 53 54 55 56 56 56 58 59 60 60 61 62 63 64
40 40 40 39 39 39 39 39 39 40 40 41 41 42 42 42 42 43 44 45 46 46 47 47 49 50 51 52 53 54 55 56 57 58 58 59 60 61 61 62 62 63 64
41 41 40 40 40 40 40 40 40 40 41 42 42 42 42 43 43 44 44 45 46 47 48 49 50 51 52 53 54 55 57 57 58 59 60 60 60 61 61 62 63 63 64
41 41 40 40 40 40 40 41 41 42 42 42 42 42 43 43 44 44 45 46 46 48 49 50 51 52 53 54 55 57 58 59 59 60 61 61 61 61 62 63 63 64 64
41 40 40 40 40 40 41 41 42 42 42 43 43 43 43 44 44 45 46 47 48 49 50 51 52 53 54 55 56 57 58 59 60 61 61 61 62 62 63 63 64 64 64
41 41 40 40 40 41 41 41 42 43 43 43 43 43 44 44 45 46 47 48 49 50 51 52 53 54 55 56 57 58 59 60 61 62 62 62 63 63 64 65 65 65 64
42 41 41 41 41 42 42 42 42 43 43 43 43 44 44 45 46 47 48 49 50 51 52 53 53 54 55 57 58 59 59 60 61 61 62 62 63 64 65 65 65 65 63
42 41 41 42 42 42 43 43 43 43 44 44 44 45 45 46 47 48 49 50 51 51 52 53 54 55 56 58 59 59 60 60 61 61 62 63 64 64 65 65 64 63 61
42 42 41 42 42 43 43 43 43 44 44 45 45 46 46 47 48 49 49 50 51 51 52 54 55 56 57 58 59 59 60 60 61 62 62 63 64 64 64 64 62 60 58
41 42 42 41 42 42 43 44 44 44 45 45 46 46 47 48 48 49 50 51 51 52 53 55 56 57 58 59 59 60 60 61 62 62 63 63 64 63 63 61 59 57 56
42 42 42 42 42 42 44 44 45 45 45 46 46 46 47 48 49 50 51 51 52 53 54 55 56 57 58 59 59 60 61 62 63 63 63 63 63 62 60 58 56 55 53
42 42 42 42 42 43 43 44 44 44 45 45 46 47 47 48 49 50 51 52 53 54 55 56 57 58 59 59 59 61 62 63 63 63 63 62 61 59 57 55 53 52 49
41 42 42 42 43 43 43 43 43 44 45 46 47 47 48 49 50 51 52 52 53 54 55 56 57 57 58 58 60 61 62 62 62 62 61 60 58 56 54 51 49 47 44
40 41 41 42 42 43 43 43 44 45 45 46 46 47 48 49 50 50 51 52 53 54 55 56 57 57 58 59 60 61 61 61 60 60 59 57 55 52 50 48 46 44 40
40 40 41 41 42 42 43 43 44 45 46 46 47 48 48 49 49 50 51 52 54 55 56 56 57 58 58 60 60 60 59 58 58 57 56 54 51 49 47 45 43 40 37
41 41 41 42 42 43 43 44 45 45 45 46 47 48 48 49 49 51 52 53 54 55 56 57 57 58 59 59 59 57 56 56 55 54 53 51 49 47 45 43 40 37 35
42 42 43 44 43 44 44 44 44 44 45 46 47 48 48 49 50 51 52 53 54 55 56 57 58 58 58 57 56 54 53 53 53 52 50 49 47 44 41 39 37 34 33
42 43 43 43 43 43 43 43 44 45 46 46 47 48 48 49 49 51 52 54 55 56 56 57 58 57 56 55 53 52 52 52 51 50 48 46 44 41 39 37 34 32 30
43 43 42 42 42 42 43 43 44 45 45 46 48 49 49 49 51 52 53 54 55 56 56 57 56 55 54 53 51 50 50 49 48 47 45 43 41 39 36 34 31 29 29
42 42 42 42 42 42 43 43 44 45 46 47 49 49 49 50 52 53 54 55 55 55 56 55 54 53 52 50 49 48 47 46 46 44 42 41 39 36 34 32 29 27 26
41 41 41 42 42 43 43 44 45 46 47 48 49 49 50 51 52 53 53 53 53 54 54 53 51 50 49 48 47 46 45 44 43 42 41 39 36 34 32 29 27 25 24
41 41 42 42 42 42 43 44 45 46 47 48 49 49 50 51 51 51 52 52 52 52 51 50 48 47 46 46 44 44 43 43 42 40 39 37 34 31 29 26 25 23 22
41 41 41 41 42 43 44 45 45 46 46 47 48 49 49 50 50 50 50 50 50 49 48 47 45 45 44 44 43 43 42 41 40 39 36 34 31 29 26 24 23 21 20
40 40 41 41 42 43 44 44 44 45 46 47 47 48 49 48 48 49 49 48 47 46 45 44 43 42 42 42 42 41 40 39 38 36 34 30 28 26 25 23 21 20 19

GEFSGL_500_meanwind_168.txt.gz
Wind_Speed
40 40 39 39 39 39 39 38 38 39 39 39 39 39 39 39 39 39 39 40 40 41 42 43 44 45 46 47 47 48 49 49 49 49 51 52 54 55 56 57 57 58 58
41 41 41 41 41 40 40 40 40 39 40 40 41 40 39 40 40 40 40 41 41 42 43 44 45 46 47 47 48 48 49 50 51 51 52 54 55 56 57 58 58 59 59
42 43 43 42 42 41 41 41 41 41 41 41 41 41 40 40 40 41 41 42 42 43 44 45 46 47 48 48 48 49 50 51 52 53 53 54 55 57 58 58 59 60 60
44 44 44 44 44 43 43 43 42 42 42 42 41 41 41 41 41 42 42 43 43 44 45 46 47 48 48 48 49 50 51 52 53 54 54 55 56 58 59 59 60 61 61
45 45 45 45 44 44 44 44 44 43 43 42 42 42 42 43 43 43 43 44 44 45 46 46 48 49 49 50 50 51 52 53 54 55 56 57 58 59 60 60 61 61 61
45 45 45 46 46 45 45 46 45 44 44 44 43 44 44 43 43 44 45 45 46 46 47 47 48 49 50 50 51 52 52 53 54 56 57 58 59 60 61 61 61 61 62
46 46 46 46 46 46 46 46 46 45 45 45 45 44 44 43 44 45 45 46 47 47 48 48 49 49 50 50 51 52 53 54 56 57 58 59 60 61 61 62 62 63 63
46 46 46 46 45 45 45 45 45 45 45 45 45 44 44 44 44 45 46 47 47 48 48 49 49 49 50 50 51 53 54 55 57 58 60 60 61 61 61 62 63 64 64
45 45 45 45 45 45 45 44 44 45 45 45 45 45 44 44 44 45 46 47 47 48 49 49 50 50 50 51 52 54 54 56 57 59 60 61 61 61 62 63 64 65 64
45 45 45 45 44 44 45 45 45 45 45 46 45 45 45 45 45 46 47 47 48 48 49 49 49 50 51 52 53 54 55 57 58 59 60 60 60 62 62 63 64 64 64
45 45 45 44 44 45 45 45 45 45 45 45 45 45 46 46 46 46 47 48 48 48 48 49 49 50 51 52 53 54 56 57 58 58 59 59 60 61 62 62 62 62 62
46 46 46 45 45 46 46 45 46 46 45 45 45 45 46 46 46 47 47 47 48 48 49 49 50 51 51 52 53 55 56 57 58 58 58 59 60 61 61 62 62 62 60
46 46 46 46 46 46 46 46 46 46 46 46 46 46 46 46 46 47 46 47 48 48 48 49 50 50 51 52 54 55 56 57 57 58 58 59 60 60 61 61 60 59 57
47 46 46 47 47 47 47 47 46 46 46 46 46 46 46 46 45 45 46 47 47 48 48 49 50 51 51 52 53 55 56 57 57 58 58 59 59 59 59 58 57 55 53
47 48 47 47 47 47 47 47 46 46 46 46 46 46 46 45 44 44 45 45 46 47 48 48 49 50 50 52 53 55 56 56 57 57 57 58 58 57 56 55 53 51 49
46 46 46 46 46 46 46 46 45 45 45 45 45 45 45 45 44 44 45 46 46 47 48 49 49 50 51 52 53 55 56 56 56 56 56 56 55 54 53 52 50 48 46
44 44 44 44 44 45 45 45 44 44 44 45 45 44 44 44 44 45 46 46 46 47 48 48 49 50 51 52 54 54 54 55 55 55 54 54 52 51 50 49 48 46 44
43 43 44 44 45 44 44 44 44 44 44 44 43 43 43 44 44 45 45 45 46 47 48 49 49 50 51 52 53 53 53 53 53 53 52 51 50 49 48 47 46 44 41
42 42 43 43 44 45 45 44 44 44 43 43 42 43 43 44 44 44 44 45 46 47 47 48 49 49 50 51 52 52 52 52 52 51 50 49 48 47 47 46 44 41 39
41 41 41 42 42 43 43 43 42 42 42 41 41 41 42 42 43 43 44 46 46 46 47 47 48 49 50 50 51 51 51 51 50 49 48 47 47 46 45 44 41 39 36
41 41 41 41 40 40 40 40 40 41 41 40 40 41 41 42 42 44 45 46 46 46 46 47 47 48 49 50 51 51 50 49 48 47 46 46 45 45 43 41 39 36 34
39 39 39 39 39 39 39 39 40 40 40 40 40 41 42 42 43 44 44 45 46 46 46 46 47 49 50 50 50 49 48 47 46 45 44 44 43 42 41 38 36 34 31
36 36 36 37 38 38 38 39 39 39 39 40 40 41 41 42 42 43 44 44 44 45 46 47 48 49 49 49 48 46 45 44 43 43 42 41 41 39 37 35 33 31 29
34 35 35 36 36 37 37 37 37 37 38 38 39 40 40 41 41 42 43 43 44 45 45 46 47 47 47 46 44 43 42 42 41 40 40 39 38 36 35 33 31 28 26
34 33 33 34 35 35 36 36 36 36 37 37 38 38 39 39 40 41 42 43 43 44 44 45 45 44 43 42 41 40 40 39 39 38 37 36 35 33 32 30 28 26 24
33 32 33 33 33 34 34 34 34 35 35 36 37 37 37 38 39 40 41 41 42 42 42 42 42 41 40 39 39 38 38 37 36 36 34 33 32 31 29 28 25 23 21

GEFSGL_500_meanwind_174.txt.gz
Wind_Speed
47 47 46 46 46 45 45 44 44 45 45 45 44 44 44 44 43 44 44 44 44 45 46 46 45 46 47 47 47 48 48 49 49 49 50 51 52 53 53 54 55 55 56
48 48 47 47 47 46 46 45 45 45 45 45 45 44 44 44 44 44 44 45 45 46 46 47 46 46 46 47 47 48 49 50 51 51 51 52 52 54 55 55 55 56 57
49 49 48 48 48 47 47 46 46 46 46 46 45 45 45 45 44 45 45 46 46 47 47 47 47 47 47 48 48 49 50 51 52 51 51 52 53 54 55 56 56 58 59
50 50 49 49 48 48 48 48 47 47 47 47 47 47 46 46 46 47 47 47 48 48 48 48 48 47 48 48 49 50 51 51 52 52 52 53 54 55 56 57 58 59 60
51 50 49 49 49 48 49 49 49 48 48 48 48 48 48 49 49 49 48 48 48 48 48 48 48 47 48 49 49 50 51 52 52 53 53 54 55 56 56 58 58 59 60
52 51 51 50 49 49 49 49 50 50 49 49 50 49 49 49 49 49 49 49 49 49 49 48 48 48 48 49 50 51 51 52 53 53 54 55 55 56 57 58 59 60 61
52 53 52 51 51 50 51 51 51 51 51 52 51 51 51 50 50 50 50 51 50 50 49 49 49 49 50 50 51 51 51 52 53 53 54 55 55 56 58 59 60 61 62
52 52 51 51 52 52 53 53 53 53 53 53 53 52 52 51 51 51 51 51 51 50 49 49 49 49 50 51 51 51 52 52 53 53 54 55 56 57 58 59 61 61 62
50 51 51 51 52 53 53 53 53 54 53 52 52 52 52 51 51 51 51 51 50 49 49 49 49 49 50 51 52 52 52 52 53 53 54 55 56 57 58 60 61 61 61
51 51 51 51 51 52 53 53 54 54 54 53 52 52 52 51 51 51 51 51 50 49 49 49 50 50 51 51 52 52 52 52 53 53 54 55 56 57 58 59 60 61 61
50 51 51 51 52 52 53 53 53 53 54 53 53 52 52 51 51 51 51 51 51 51 51 51 51 51 51 51 52 52 52 52 52 53 54 55 56 57 58 59 60 61 62
50 50 50 50 51 52 52 52 52 53 53 53 53 52 51 51 51 52 51 51 51 52 52 52 52 51 51 51 52 52 51 51 52 53 53 54 56 56 58 59 60 61 61
49 49 49 50 50 50 51 51 51 51 52 52 52 51 51 50 51 51 51 51 52 53 52 51 51 51 51 51 52 51 50 51 52 53 53 54 55 56 57 58 59 59 59
49 48 48 49 49 49 50 50 50 50 50 50 50 50 50 50 50 50 49 50 50 50 50 49 49 50 50 51 51 50 50 51 52 53 53 54 54 55 56 57 57 56 56
48 49 49 49 49 49 49 49 50 51 51 50 50 49 50 50 49 49 49 49 48 48 48 48 48 48 49 49 49 49 50 51 52 52 52 52 53 54 55 55 55 55 56
48 48 48 48 49 49 49 49 49 50 50 50 50 49 48 48 47 47 47 48 47 46 46 46 46 47 48 47 48 48 49 50 51 51 51 52 52 53 54 53 54 54 54
45 46 47 47 47 47 47 48 48 48 49 49 48 47 47 47 46 46 45 45 45 45 45 45 46 46 46 46 47 48 48 49 49 49 49 50 51 52 52 52 52 52 51
43 43 45 45 45 45 45 45 46 45 45 45 45 45 44 44 44 44 44 44 44 44 44 44 45 45 45 45 46 46 47 47 47 48 49 50 50 50 50 49 49 49 49
41 41 41 41 42 42 42 43 43 42 42 41 42 42 42 43 43 43 43 43 43 43 43 44 44 45 45 45 45 45 46 46 47 47 48 48 48 48 48 47 48 47 47
40 39 39 40 40 40 40 40 40 40 39 40 40 41 42 43 43 43 42 43 43 43 44 44 44 44 43 43 44 44 45 45 45 46 46 46 46 46 46 46 46 46 45
40 39 39 39 38 39 39 39 39 39 39 40 40 40 41 41 41 41 41 41 41 42 42 42 42 42 42 43 43 43 43 43 44 43 43 43 44 45 45 45 45 44 44
38 38 37 37 38 38 38 38 38 38 39 38 38 38 39 39 39 39 39 39 40 41 41 41 40 41 41 41 41 41 41 41 41 42 42 42 43 44 44 44 43 42 40
37 37 37 37 37 37 37 37 37 37 37 37 37 37 37 37 37 37 38 38 39 39 38 38 38 38 39 39 39 39 39 40 40 41 41 41 42 42 42 42 40 38 36
37 37 37 37 36 36 36 36 36 35 35 35 35 36 36 35 35 35 35 36 35 35 35 35 35 36 36 36 37 37 38 38 39 40 40 40 40 39 39 38 36 34 32
34 34 34 34 34 34 33 33 34 34 34 34 34 33 33 33 33 33 34 33 33 33 33 33 34 33 33 34 35 35 36 37 38 38 38 37 37 36 35 34 32 30 27
31 31 31 31 31 32 32 32 32 32 32 31 31 31 31 31 31 31 31 31 31 31 32 32 32 32 32 33 33 35 36 36 36 36 35 34 33 32 32 30 29 26 23

GEFSGL_500_meanwind_180.txt.gz
Wind_Speed
51 51 51 52 51 51 51 50 50 51 51 51 51 50 50 49 48 47 47 47 47 46 46 46 45 45 45 45 45 45 46 46 46 46 46 47 47 48 49 49 50 51 51
51 51 51 51 53 52 52 52 52 52 52 52 52 51 51 50 50 49 48 48 48 48 47 47 46 46 46 46 46 46 47 47 47 47 47 47 47 48 49 50 51 52 52
51 51 53 52 52 53 52 52 53 53 53 53 52 51 51 51 50 50 50 49 49 48 48 47 47 47 47 47 47 47 47 47 48 48 47 47 48 49 50 50 51 52 52
52 53 53 53 53 52 53 53 53 53 53 53 53 53 52 52 52 52 51 51 50 49 49 49 48 48 48 48 48 47 48 48 48 48 48 48 49 50 51 51 51 52 52
52 52 53 53 53 53 52 51 52 53 53 54 54 53 53 52 52 51 51 50 49 49 49 49 48 48 48 49 49 48 49 49 49 49 49 49 50 51 52 52 52 53 53
52 52 53 54 54 54 53 51 51 51 52 53 53 52 52 52 51 51 50 50 49 48 48 48 49 48 49 49 49 50 50 50 50 50 50 51 51 52 52 52 52 53 53
52 53 53 53 53 53 53 52 51 50 50 51 51 52 51 51 51 50 51 51 49 49 49 49 49 49 49 49 50 50 50 50 51 51 51 51 52 52 53 52 52 53 54
50 52 53 53 53 52 52 53 52 50 50 50 51 51 52 51 51 50 51 51 50 50 50 50 50 49 49 49 49 49 50 50 50 50 51 51 52 52 52 52 52 53 55
49 50 51 52 53 53 52 53 53 53 51 50 50 51 51 51 50 50 51 50 50 50 49 50 50 49 49 50 50 50 50 49 49 50 50 51 51 52 51 51 52 53 55
48 49 50 51 52 52 52 53 53 53 52 50 50 51 51 50 50 50 50 50 49 49 49 48 49 49 49 50 50 50 50 50 50 50 51 51 51 51 50 51 52 54 56
46 47 48 50 50 51 51 52 52 52 52 52 51 51 51 50 50 50 50 50 50 50 49 49 50 50 50 50 50 49 49 49 50 50 51 50 50 50 50 51 53 55 57
46 46 47 48 49 50 51 51 51 50 51 51 50 50 50 50 49 49 49 50 50 51 51 50 50 50 50 50 50 49 49 49 50 50 50 50 50 51 51 52 54 55 57
44 45 46 47 47 48 49 49 48 48 48 49 48 48 47 47 48 48 49 50 50 50 50 50 51 50 50 50 49 49 49 49 49 49 49 49 50 50 51 52 53 55 55
43 44 45 45 46 46 46 46 46 46 46 47 47 47 46 46 47 48 48 48 47 48 49 49 49 48 48 48 47 47 48 48 48 48 48 49 50 50 50 51 52 52 52
43 43 44 45 45 44 44 45 45 45 45 45 46 46 47 46 45 44 44 45 45 46 46 46 45 45 46 46 45 46 47 47 47 47 47 48 48 48 49 50 50 50 50
41 42 42 43 43 42 42 43 43 43 43 43 43 43 43 43 43 43 43 43 43 43 44 44 44 43 43 43 44 45 45 45 46 46 46 46 47 47 47 47 47 48 48
38 38 39 40 40 40 41 41 42 42 42 41 41 41 41 41 41 42 42 41 41 41 41 42 42 42 42 42 42 43 44 44 45 44 44 44 44 44 44 45 46 46 46
37 36 36 37 38 38 38 39 39 39 40 41 41 40 40 41 41 41 41 40 40 40 40 40 40 41 41 41 42 42 42 42 42 42 41 42 42 43 43 44 45 44 44
36 36 35 35 35 36 36 37 38 38 38 39 40 39 39 40 39 39 39 39 38 39 39 39 39 39 40 41 41 40 40 40 40 40 40 40 41 41 42 42 42 42 42
35 34 34 35 34 35 35 35 37 37 37 37 38 38 38 38 38 39 38 37 37 38 38 38 37 38 39 39 39 39 39 39 39 39 38 38 39 40 40 41 40 41 41
34 34 34 34 34 34 34 34 35 35 36 36 37 37 37 37 36 37 36 36 36 36 36 36 36 36 37 37 37 37 37 37 37 37 37 37 38 38 39 39 39 39 39
33 33 33 33 33 33 33 33 34 34 34 35 35 35 36 36 36 36 36 35 35 35 34 34 34 34 35 35 35 34 34 35 35 35 36 36 37 37 37 37 37 37 37
32 31 31 31 31 31 31 32 32 32 32 32 32 33 33 34 34 34 34 34 34 34 34 33 32 33 33 33 32 32 33 33 33 34 34 35 35 36 36 36 36 36 35
30 30 30 30 30 30 30 30 29 29 29 30 30 30 31 32 32 32 31 31 31 32 31 31 31 32 32 31 31 32 32 32 32 32 33 33 34 34 34 34 34 33 32
28 28 28 29 29 28 28 28 28 28 29 29 29 29 29 30 30 29 29 29 29 29 29 30 30 30 30 29 30 30 30 30 30 30 31 31 32 32 32 31 30 30 29
25 25 26 26 26 26 27 27 27 27 27 27 27 27 27 27 27 27 27 27 27 27 28 28 28 28 28 28 28 28 28 28 28 29 29 29 30 30 29 28 27 26 26

GEFSGL_500_meanwind_186.txt.gz
Wind_Speed
50 50 50 50 51 51 51 51 52 52 52 52 52 53 53 53 53 53 52 51 50 50 50 49 48 48 49 48 48 48 48 48 48 47 47 47 47 47 48 48 49 49 49
50 51 51 51 52 52 51 52 52 53 53 53 54 54 54 54 54 54 53 52 51 50 50 50 49 49 49 49 49 50 50 50 50 49 48 49 49 48 48 48 49 50 49
49 50 50 51 51 52 52 52 52 53 54 54 54 55 54 55 55 55 53 53 52 51 50 50 50 50 49 50 50 50 50 51 50 50 49 49 48 48 49 49 49 50 50
48 49 50 51 51 52 53 53 53 54 54 55 55 54 54 54 55 54 53 53 53 52 51 51 51 51 51 51 51 51 51 51 50 49 49 49 48 49 49 49 49 50 50
47 49 50 51 51 52 53 54 54 55 55 55 55 53 53 54 54 53 53 53 53 53 53 53 52 52 53 52 52 52 51 51 50 50 50 50 50 50 50 49 49 49 50
47 48 49 50 52 53 52 52 53 54 54 54 54 53 52 52 52 52 52 52 52 52 53 53 53 53 52 52 51 50 50 50 50 50 50 50 50 50 49 49 49 50 51
47 48 49 50 51 52 53 52 52 53 53 53 53 52 51 51 51 51 51 51 51 51 51 52 53 52 52 52 52 51 50 49 49 49 50 49 49 49 49 50 50 51 50
47 47 49 50 51 51 52 52 51 51 52 52 51 51 50 49 50 49 49 49 49 49 49 50 50 50 50 51 51 49 49 49 49 49 49 48 49 49 49 50 50 50 50
46 47 48 49 50 50 51 51 50 50 50 50 49 49 49 48 49 48 48 49 48 48 48 48 48 48 48 48 47 47 47 48 48 48 48 48 49 49 49 50 50 50 50
44 45 46 47 48 48 49 49 49 48 48 48 48 47 47 47 48 48 49 49 48 48 47 47 46 46 46 47 47 47 48 48 49 49 49 49 49 49 50 50 50 50 50
42 43 44 45 46 46 47 48 48 48 48 48 47 47 46 46 47 47 47 47 47 47 47 46 46 45 46 46 47 47 48 48 49 49 49 50 50 50 50 50 50 50 51
41 42 42 43 43 44 44 45 46 47 48 48 48 47 46 45 45 46 46 46 46 47 47 46 46 46 46 46 47 48 48 48 48 48 48 49 49 50 50 50 50 50 50
40 40 40 41 42 43 44 44 44 44 44 44 45 45 45 45 45 44 45 46 46 47 46 46 46 46 46 46 46 46 46 46 46 46 47 47 47 48 49 49 49 49 49
39 38 38 39 39 40 41 42 42 43 44 44 45 44 44 45 46 45 45 45 45 44 44 44 44 44 44 44 44 45 45 44 44 44 44 45 45 45 46 47 47 47 47
37 37 36 37 38 38 39 41 41 41 41 42 43 43 44 44 45 45 44 43 43 43 44 43 42 42 42 42 42 42 42 43 43 43 43 43 43 44 44 45 45 45 45
36 36 36 37 37 38 39 39 40 40 41 41 40 41 41 42 43 43 43 42 42 42 42 43 42 41 41 41 41 41 41 42 42 42 42 42 42 42 42 42 43 43 43
36 36 36 36 37 37 38 38 39 39 40 40 39 39 39 39 39 40 40 40 40 40 41 41 40 40 39 39 39 39 39 39 39 39 40 41 41 41 41 41 41 41 41
35 35 36 36 36 36 37 37 37 37 37 38 38 37 37 37 37 37 37 38 38 38 38 37 37 38 38 38 38 38 37 37 37 38 39 39 39 39 39 39 39 39 40
34 34 35 35 35 35 35 36 36 36 36 35 35 35 36 36 36 36 36 36 36 36 35 34 34 35 35 35 36 36 36 36 36 37 37 38 37 37 37 37 38 38 39
33 34 34 34 34 35 35 36 36 35 35 34 34 34 34 34 34 34 34 34 34 34 33 33 33 33 33 34 34 34 35 35 36 35 35 35 35 36 36 36 36 37 38
32 32 32 32 32 33 33 34 34 34 34 33 32 32 32 32 32 32 32 32 32 31 32 32 32 32 32 32 32 33 33 33 33 33 34 34 34 34 35 35 35 36 36
30 30 31 31 31 31 31 31 30 30 30 30 29 30 30 30 29 29 29 29 29 30 30 30 30 30 30 30 30 30 31 32 32 32 32 33 33 33 34 34 35 35 34
29 28 28 27 27 27 28 28 29 29 28 28 28 28 28 27 27 27 27 27 28 28 29 29 29 28 29 29 29 29 29 29 30 31 31 32 32 33 33 34 34 33 32
26 26 25 25 26 25 25 26 27 27 27 27 27 27 27 26 26 26 26 26 27 28 28 28 27 28 27 27 27 27 28 28 29 30 30 30 31 32 32 32 31 30 31
24 24 24 24 24 25 25 25 25 25 25 26 25 26 26 26 25 26 25 25 25 26 27 26 26 26 26 26 26 26 26 27 28 29 29 30 30 30 30 29 28 28 28
24 23 23 24 24 24 23 23 23 24 24 25 24 24 25 25 25 25 24 24 24 25 25 25 25 24 24 24 24 25 25 26 27 27 27 27 27 27 26 25 25 25 25

GEFSGL_500_meanwind_192.txt.gz
Wind_Speed
45 46 47 48 50 51 51 51 51 52 53 52 53 53 54 55 55 55 55 54 54 53 53 53 52 52 53 53 52 52 52 52 51 49 49 49 49 48 48 48 48 49 50
45 46 47 48 49 50 51 51 52 53 53 53 54 54 54 55 55 56 55 55 55 54 53 53 53 53 53 52 53 53 52 52 52 51 50 50 50 50 50 50 49 50 51
45 45 46 47 48 49 50 51 52 53 53 53 54 54 54 55 55 55 55 55 55 54 53 52 51 52 52 52 52 52 52 52 52 53 51 50 51 51 51 51 50 51 51
47 46 46 47 48 50 50 51 52 53 53 53 53 53 53 53 53 54 54 54 53 53 52 51 51 51 52 51 51 50 50 51 52 52 52 51 51 51 51 50 50 50 50
48 47 47 47 48 49 50 51 52 53 53 52 51 50 51 52 52 52 52 52 51 52 52 51 51 51 51 50 50 50 50 51 51 51 51 51 51 51 49 49 49 49 49
48 48 48 49 49 49 50 50 50 51 52 52 51 50 50 50 50 50 52 52 51 51 50 49 49 50 50 49 49 49 49 51 50 50 50 50 49 49 49 49 49 49 50
47 48 48 49 50 50 49 49 48 49 51 52 51 50 49 49 49 48 49 50 50 49 48 48 49 49 49 49 50 50 50 50 50 51 51 50 49 49 50 50 50 50 49
46 48 49 49 50 49 48 47 47 48 49 50 50 49 48 47 47 47 47 48 49 48 47 47 48 48 49 49 50 49 49 49 49 50 50 49 49 50 49 49 49 49 49
45 46 47 48 47 47 47 47 47 47 47 48 48 47 47 46 46 46 46 48 48 48 47 47 47 47 47 48 48 48 47 48 48 48 48 48 48 48 48 48 47 48 48
43 44 45 45 43 43 44 45 46 46 45 45 46 46 46 46 45 46 46 46 46 46 47 47 46 45 46 47 47 46 45 45 45 46 47 48 47 46 46 46 46 48 48
41 42 42 42 42 41 41 42 42 42 43 43 44 43 44 44 44 44 44 45 45 45 45 45 45 45 45 45 45 44 44 45 45 46 45 45 46 46 46 47 47 48 48
40 40 41 41 40 40 40 40 40 40 41 41 42 43 42 42 43 42 43 44 44 44 43 43 43 43 43 43 43 43 43 44 44 44 44 44 44 45 45 46 46 46 46
39 38 38 39 40 39 38 38 38 38 38 39 39 40 40 40 41 42 42 43 43 43 42 40 41 41 41 41 41 42 42 41 41 42 43 43 43 43 43 43 44 44 44
36 36 36 36 37 38 37 37 36 36 37 38 38 39 39 39 39 40 40 41 41 41 41 40 39 40 40 40 41 41 41 40 41 41 42 42 42 42 42 43 43 42 42
34 33 33 34 34 34 35 35 34 35 36 36 37 38 38 38 39 39 39 38 38 39 38 38 39 39 38 39 40 41 41 42 42 41 41 41 41 41 40 40 40 39 40
33 33 32 32 33 33 33 33 33 34 35 35 36 37 38 38 38 38 38 38 38 37 37 37 37 38 38 39 39 39 40 41 41 41 41 40 40 40 39 39 39 39 39
32 32 31 31 30 31 32 32 32 33 34 34 35 36 37 37 37 36 36 37 36 36 36 35 35 35 36 36 37 37 38 39 39 39 39 39 39 39 39 38 38 38 38
30 31 31 31 30 30 31 31 32 31 32 33 33 34 35 35 36 36 36 35 36 35 35 35 34 34 34 35 35 36 36 36 36 37 37 37 38 38 38 37 37 37 37
30 31 31 30 30 30 30 31 31 30 30 31 32 32 33 33 34 34 34 33 33 33 33 33 33 33 33 33 34 34 34 34 34 35 35 36 36 36 36 36 36 35 35
29 30 30 29 29 29 29 30 30 30 30 31 30 30 30 30 31 31 31 31 30 30 30 31 31 32 32 32 32 33 33 33 33 33 34 34 34 34 35 35 35 35 35
29 28 29 28 28 29 29 29 29 29 29 28 28 28 28 28 28 28 29 29 28 28 29 29 30 30 31 31 31 31 31 32 32 32 32 33 34 34 34 34 34 34 34
27 27 27 27 28 28 27 27 27 27 27 27 26 26 26 26 26 26 26 27 27 27 27 27 27 28 29 29 30 30 30 29 29 29 30 31 31 32 32 33 34 34 34
26 26 26 26 26 26 26 25 25 25 25 25 25 25 24 24 24 24 25 26 26 25 25 25 25 25 26 26 27 27 27 26 26 26 27 28 28 29 30 31 32 32 32
25 25 25 24 24 24 24 23 23 23 23 23 23 23 23 23 23 23 23 24 25 25 24 24 23 23 23 23 24 25 25 25 25 25 26 27 27 27 29 29 29 29 29
24 24 23 23 22 21 21 22 22 22 22 22 22 22 22 22 22 22 22 22 23 24 23 23 22 22 22 22 22 23 22 22 23 23 24 24 25 26 27 27 27 26 26
22 22 22 22 21 20 20 20 20 20 21 21 21 21 21 21 21 21 21 22 22 22 22 21 21 21 21 20 20 20 21 21 22 22 23 24 25 25 25 24 24 24 24

GEFSGL_500_meanwind_198.txt.gz
Wind_Speed
46 47 48 48 49 49 50 51 51 52 52 53 53 52 52 53 54 56 57 58 58 58 57 57 57 56 57 56 56 56 56 54 53 50 50 50 50 49 50 50 50 50 49
47 48 48 48 49 50 50 51 52 52 52 53 54 54 54 53 54 55 56 57 58 57 56 56 56 55 55 54 54 55 54 54 52 50 50 50 49 49 49 50 50 50 50
47 48 48 49 50 50 51 51 52 52 52 52 54 54 54 55 55 55 56 56 56 56 55 55 54 54 54 54 54 54 54 53 52 51 50 50 49 49 50 50 50 50 51
46 47 48 50 50 51 51 51 51 51 50 51 52 53 52 53 55 55 56 55 54 53 53 53 52 52 52 53 53 53 52 52 52 51 50 50 49 49 49 50 49 50 50
46 47 48 49 50 50 50 50 49 49 49 49 49 50 52 53 53 53 54 54 52 52 51 51 51 51 52 52 52 51 51 51 52 51 49 49 48 48 49 49 49 49 48
47 48 49 49 49 48 49 49 50 50 50 49 49 50 51 52 51 50 51 51 51 50 49 49 49 50 50 51 51 50 50 50 51 50 48 47 47 47 47 48 48 48 47
49 49 48 47 47 47 48 49 50 49 49 50 50 50 50 50 49 48 48 49 50 49 49 48 48 48 48 49 49 50 50 50 50 50 48 46 46 46 47 47 47 46 46
48 48 48 46 46 46 47 48 49 49 49 49 49 49 48 48 48 47 48 48 48 48 49 48 46 46 47 48 49 50 50 49 48 48 47 47 47 47 48 47 46 46 46
47 47 46 46 46 47 47 47 48 48 47 47 48 47 47 46 47 47 47 47 47 46 45 45 45 46 45 46 47 47 47 47 47 47 48 47 46 46 46 46 46 45 45
44 43 44 44 45 46 46 46 46 46 46 47 46 46 45 45 44 44 44 44 44 44 44 44 45 45 44 45 45 45 46 46 46 46 46 45 45 44 44 44 44 44 45
42 42 43 44 45 45 45 45 45 44 44 44 43 44 44 43 42 41 41 42 42 42 42 43 43 44 44 43 43 43 43 44 45 45 44 43 43 43 43 43 42 42 43
42 42 42 43 43 44 43 43 44 44 43 42 42 42 42 41 40 40 41 41 41 41 41 41 42 42 43 42 42 42 42 43 43 41 41 41 41 42 42 41 41 41 41
41 41 41 41 41 41 41 41 40 40 40 39 39 39 39 39 39 38 39 39 38 39 39 39 40 40 41 41 41 41 41 41 40 39 40 40 40 40 40 41 41 40 41
40 40 39 39 38 38 37 37 36 36 36 36 35 35 36 36 36 36 36 36 37 37 37 38 38 39 40 39 38 37 37 37 37 38 38 38 39 39 39 39 39 39 40
40 39 38 38 36 35 34 33 33 33 33 33 33 33 32 32 32 33 34 33 34 35 35 36 36 36 36 36 35 35 34 34 35 35 37 37 38 38 38 38 38 38 39
38 37 36 35 34 33 32 31 31 32 32 31 31 30 30 29 29 30 30 31 31 32 33 34 34 34 34 33 33 33 33 33 34 34 35 35 36 36 36 36 37 37 38
36 35 34 33 32 32 31 30 30 29 29 30 29 29 29 28 28 28 28 28 29 29 29 29 30 30 31 30 31 32 32 32 33 33 33 34 34 35 35 35 35 35 36
34 33 32 32 31 31 30 29 29 29 28 28 27 27 27 26 26 27 27 27 27 27 29 29 29 29 29 29 30 30 31 31 32 32 32 33 33 33 34 33 34 34 35
32 31 31 30 30 30 30 29 28 28 27 27 26 26 26 26 26 26 26 26 26 27 27 27 27 26 27 28 28 29 29 30 30 31 31 31 31 31 32 32 33 34 34
30 30 30 29 29 28 28 27 26 26 26 26 25 24 25 25 25 25 26 25 25 25 25 25 25 26 26 26 26 27 27 28 29 30 30 30 30 30 31 32 33 33 33
29 29 29 28 27 26 25 25 25 25 25 25 25 25 24 23 23 24 24 23 23 22 22 23 23 23 24 24 24 25 26 26 27 28 28 29 29 29 30 30 31 32 32
28 28 28 27 26 26 25 24 23 23 23 23 23 23 23 22 22 22 22 22 22 21 21 22 22 23 23 24 24 24 24 25 25 26 27 27 28 28 28 28 28 28 29
26 25 25 25 24 24 23 23 22 21 21 21 20 21 21 21 22 22 22 22 21 22 22 22 22 23 23 24 23 23 24 24 24 25 25 25 25 25 25 26 27 27 28
23 23 23 23 23 22 22 21 21 21 20 20 19 19 20 20 20 21 21 21 21 21 21 22 22 21 21 21 21 22 22 22 22 22 22 23 23 24 24 25 25 26 26
22 22 22 22 21 20 20 20 20 20 20 19 19 19 19 19 19 19 19 19 19 20 20 20 20 20 19 20 20 20 20 20 20 20 20 21 21 22 22 23 24 25 25
21 21 21 20 20 20 20 19 19 19 19 19 19 19 19 19 18 18 18 18 19 19 19 19 18 18 18 18 18 18 17 18 18 18 18 19 19 20 21 22 22 23 23

GEFSGL_500_meanwind_204.txt.gz
Wind_Speed
45 45 45 45 45 47 47 48 48 48 49 50 50 50 51 51 51 52 52 52 53 54 55 55 54 54 55 55 56 56 55 55 54 52 52 51 51 51 52 52 51 51 50
45 46 46 46 46 46 47 47 48 49 49 50 50 50 50 51 51 52 52 52 52 53 53 54 55 54 53 54 55 55 54 53 53 52 51 51 51 51 52 52 52 51 50
45 45 45 46 46 46 46 47 48 49 49 49 49 49 50 51 52 53 53 53 52 52 53 53 54 54 53 52 53 53 53 52 52 52 51 51 50 50 51 51 51 51 50
44 44 45 45 46 46 47 48 48 49 49 49 49 49 50 52 52 52 52 54 53 53 53 53 51 51 51 52 51 50 51 51 52 52 51 50 49 49 50 50 51 50 49
44 45 45 46 47 48 48 48 49 48 48 49 50 50 51 51 52 52 53 53 53 53 52 52 51 50 50 50 50 50 51 51 52 52 51 50 49 49 49 49 50 49 49
44 45 46 47 48 49 49 49 48 49 49 49 49 50 50 51 52 53 53 52 52 52 51 51 50 49 48 49 49 49 50 51 51 51 50 50 49 49 48 47 48 48 47
44 46 47 48 48 49 49 49 49 49 49 50 50 50 49 50 51 51 52 51 51 50 49 50 49 48 49 48 48 48 48 49 48 48 48 49 48 47 47 46 46 47 46
45 47 47 48 49 49 48 47 47 47 47 47 49 49 49 49 49 49 49 49 49 48 47 47 47 47 47 48 48 48 48 47 46 46 46 46 46 46 46 46 45 45 45
46 47 47 47 47 47 46 46 45 45 45 45 46 47 48 48 47 47 47 47 47 46 45 45 45 46 46 47 48 48 48 46 45 45 45 44 44 44 44 43 43 44 43
45 45 45 45 45 44 44 44 44 44 43 43 44 44 44 44 44 44 45 45 45 44 44 44 44 44 44 45 45 45 45 44 43 42 43 43 43 42 42 42 42 42 42
44 44 44 44 43 43 43 44 44 44 43 42 42 42 42 41 41 42 43 43 42 42 41 41 42 43 42 42 42 42 41 40 40 40 41 42 42 41 40 39 39 40 40
43 43 43 43 43 43 42 42 42 42 42 41 40 40 39 39 39 39 41 41 41 40 39 39 40 40 40 40 39 38 38 39 39 39 38 39 40 39 38 38 38 38 39
42 42 41 41 41 42 42 41 41 41 40 40 40 39 38 37 37 38 38 38 38 37 36 36 36 36 36 36 36 36 36 37 38 37 36 36 37 38 38 38 37 37 37
41 41 41 41 40 40 39 39 39 38 38 38 37 37 36 35 34 34 34 34 34 34 34 33 33 34 34 33 33 33 34 35 36 36 36 35 35 35 36 36 36 36 36
41 40 40 39 39 38 38 37 36 35 35 34 33 32 31 31 30 30 29 30 30 30 31 31 30 30 31 31 32 32 32 32 33 34 34 34 33 33 34 35 35 35 35
40 39 38 38 37 37 36 35 35 34 33 32 32 31 29 29 28 27 28 28 28 29 29 29 29 30 31 31 31 31 31 31 32 32 32 32 32 32 32 32 34 34 34
37 36 36 35 35 34 33 32 32 31 30 30 30 29 28 27 27 27 27 27 27 27 28 28 28 29 29 29 30 31 31 31 31 30 29 29 30 31 31 31 31 32 32
34 33 33 32 31 31 30 29 29 28 28 28 28 28 27 26 25 25 25 25 25 25 26 26 26 26 26 27 28 28 29 29 29 27 27 27 28 28 29 30 30 31 31
31 30 30 29 29 28 27 27 27 26 26 26 26 25 25 24 24 23 23 23 22 22 23 23 23 23 24 24 24 25 25 26 25 24 24 25 26 27 28 29 29 29 29
28 27 27 27 26 26 26 25 24 24 23 23 22 22 22 22 22 22 21 20 20 20 21 21 21 21 22 22 23 23 23 23 23 24 24 25 25 26 27 27 27 27 28
26 26 26 25 25 25 24 23 21 21 21 21 20 20 20 19 19 20 20 19 19 20 20 20 21 21 21 21 21 22 22 22 23 23 23 24 24 25 25 26 25 25 26
24 24 24 24 24 22 21 20 20 19 19 19 19 18 18 18 17 17 18 18 19 19 19 20 21 21 21 21 21 21 21 21 21 21 22 22 23 24 24 24 24 25 25
22 22 22 22 21 19 18 18 18 18 18 18 18 17 17 17 16 16 16 17 18 18 18 18 19 19 20 20 20 20 20 20 20 20 21 21 21 22 23 23 23 23 23
21 21 19 18 17 17 16 16 16 17 17 17 16 16 16 16 16 16 16 16 16 16 16 16 16 17 18 18 19 20 20 19 19 19 20 20 20 20 20 21 21 22 22
20 19 18 17 16 16 16 16 16 16 16 16 16 15 15 16 16 16 16 15 15 15 15 15 16 16 16 16 17 18 18 18 18 18 18 18 18 19 19 19 20 20 20
18 17 17 17 16 16 16 16 16 16 15 15 15 15 15 15 15 15 14 14 14 14 14 15 15 15 16 15 15 16 16 17 17 17 17 17 17 17 18 18 18 18 18

GEFSGL_500_meanwind_210.txt.gz
Wind_Speed
46 46 47 48 48 48 49 49 49 49 49 49 49 50 51 52 52 52 51 51 51 51 52 53 53 53 53 52 51 50 50 51 52 50 50 50 50 51 51 51 51 51 51
46 46 47 47 47 48 48 48 48 49 49 49 50 50 51 51 52 52 52 51 52 52 52 53 52 52 52 52 50 50 50 51 52 52 51 50 50 50 51 51 51 51 51
46 46 46 46 46 47 47 47 48 49 49 50 50 50 51 51 51 51 51 51 51 52 52 52 52 52 52 52 51 50 50 50 51 52 50 50 50 51 52 52 52 51 51
44 45 45 45 45 46 46 47 48 49 50 50 50 49 50 50 50 50 50 50 51 51 51 52 52 52 52 51 51 50 49 49 50 51 50 49 49 50 50 50 49 48 49
44 43 43 44 44 44 45 47 48 49 49 50 50 50 49 49 50 50 50 50 51 51 51 51 52 51 51 51 51 51 50 49 49 50 50 49 49 49 49 48 47 46 45
43 43 43 44 44 44 45 47 48 48 48 49 49 50 49 49 49 50 51 50 50 50 50 50 51 51 51 50 51 51 50 49 49 48 48 47 48 48 47 46 46 45 45
43 43 43 44 44 45 45 46 47 47 48 49 49 50 49 49 49 50 51 50 49 50 49 49 49 49 49 49 49 50 50 49 49 48 47 46 46 46 45 45 45 45 44
43 44 44 44 44 45 46 47 48 48 49 49 49 49 49 49 48 49 49 49 49 48 48 48 47 46 46 47 48 49 48 47 47 47 46 44 43 43 43 44 44 43 42
42 43 44 45 45 45 46 47 49 49 49 48 48 48 48 48 48 48 48 47 47 46 46 46 45 44 44 44 44 44 43 43 44 44 43 43 42 41 41 41 41 41 39
42 43 44 45 45 45 46 47 47 47 47 47 46 47 47 47 47 47 47 47 46 45 44 43 43 42 41 41 40 40 40 40 40 41 41 41 40 39 39 39 39 39 38
43 43 44 44 45 45 45 46 47 47 47 46 47 47 46 46 46 46 46 45 44 43 42 41 40 39 38 38 39 38 38 38 38 39 38 37 37 37 36 35 34 35 35
43 43 43 44 44 44 45 45 46 46 46 46 46 45 45 45 45 45 45 44 42 41 40 39 37 37 36 37 37 36 37 37 36 36 36 35 34 33 34 34 33 33 33
42 42 43 43 44 44 45 45 45 46 45 45 44 43 43 43 42 42 41 40 39 38 38 37 36 35 35 35 35 35 35 35 35 35 33 32 32 32 32 32 31 32 33
42 42 42 42 43 44 44 44 44 44 43 43 42 42 41 39 39 38 37 36 35 35 35 34 33 33 33 33 33 32 32 32 32 31 31 30 31 31 31 31 30 31 32
42 42 41 42 42 43 43 43 42 41 42 41 40 38 36 35 34 34 33 31 31 31 31 31 31 32 32 32 31 31 30 30 30 29 29 30 29 29 29 29 29 29 30
42 42 42 42 42 41 41 40 39 39 38 38 36 35 34 32 31 30 29 28 28 28 28 28 29 29 28 28 29 29 29 29 28 28 28 27 27 27 27 28 28 28 28
41 42 41 41 40 40 39 38 36 35 35 34 33 32 31 29 28 27 26 25 25 25 25 25 25 25 26 26 27 28 27 27 27 27 27 26 26 26 26 26 27 27 27
40 40 40 39 38 38 37 35 34 33 32 30 30 29 27 26 25 25 24 24 23 23 23 23 23 23 23 24 25 25 25 26 26 26 26 26 26 25 26 26 26 26 26
38 37 36 36 35 34 33 32 31 30 29 27 27 25 24 23 23 23 23 22 22 22 22 22 21 21 21 22 22 23 23 24 24 24 24 25 25 24 24 24 24 25 25
35 34 34 33 32 31 30 29 28 27 25 24 23 23 22 21 21 21 21 21 21 21 20 20 20 20 20 21 21 22 22 21 21 21 21 21 22 22 22 22 23 24 23
33 32 32 31 30 29 28 26 26 25 23 22 21 21 20 20 20 19 19 19 19 19 18 18 18 18 18 18 18 18 18 18 19 19 19 19 20 20 21 21 22 22 22
31 29 29 28 27 26 25 24 23 22 21 20 19 19 19 18 18 17 17 17 17 17 16 16 16 16 16 16 16 16 16 16 17 17 18 18 19 19 20 20 20 20 19
28 27 26 25 25 24 23 22 21 20 19 18 17 17 16 16 16 16 16 16 15 15 14 14 14 14 15 15 15 15 16 16 16 17 18 18 18 18 18 18 18 18 18
26 25 23 23 23 21 20 20 20 19 18 17 16 15 14 14 14 14 14 14 13 13 13 13 13 13 14 14 14 15 15 15 16 16 17 17 17 17 17 17 17 17 17
24 23 21 21 21 20 20 19 18 17 17 16 14 14 13 12 12 12 12 12 12 12 12 12 13 13 13 13 13 14 14 14 15 15 16 16 16 16 16 16 16 16 16
22 21 20 20 20 19 19 18 17 16 15 14 14 13 13 12 12 11 11 11 11 11 11 12 12 12 12 12 12 12 13 13 14 14 14 15 15 15 15 15 15 14 15

GEFSGL_500_meanwind_216.txt.gz
Wind_Speed
44 46 46 46 46 48 49 49 50 50 50 50 50 51 52 52 52 53 52 53 53 53 53 53 53 54 54 54 55 55 56 56 55 53 52 52 53 53 52 52 53 53 54
45 46 46 47 47 48 49 49 49 50 50 50 50 50 50 50 50 51 51 51 52 52 52 53 54 54 54 54 54 54 55 55 55 53 52 53 53 53 53 53 53 54 54
46 47 47 47 48 48 49 49 49 50 50 49 49 49 49 49 50 49 49 50 51 52 52 52 53 53 53 53 53 53 54 54 54 54 53 53 53 53 54 54 54 55 55
45 46 47 47 48 49 50 51 51 50 49 48 48 49 49 49 48 48 49 49 50 51 51 51 52 53 52 52 52 52 52 53 53 53 53 53 52 52 54 54 53 53 52
45 46 47 48 48 49 49 50 49 48 48 47 47 48 49 48 49 49 49 49 50 51 51 50 51 51 52 52 52 52 51 51 52 52 52 52 52 51 51 51 51 50 50
45 45 46 47 48 48 48 47 47 47 47 47 46 47 48 48 49 50 50 50 50 50 50 50 50 50 50 50 50 50 50 50 50 50 50 50 50 49 49 49 48 48 48
44 45 45 46 46 46 46 46 46 46 46 46 47 48 48 48 49 50 51 51 50 49 49 49 49 48 48 49 49 49 50 49 49 48 48 48 48 47 46 45 45 46 45
43 44 44 45 45 44 44 44 45 45 45 46 46 48 49 49 49 49 50 50 49 49 50 49 48 48 48 48 48 49 49 48 48 47 47 46 45 45 43 43 43 43 43
43 43 43 43 43 43 43 43 44 45 45 46 47 48 48 48 48 48 48 48 48 48 48 48 48 47 47 48 48 47 47 46 46 45 44 43 42 42 41 41 40 41 40
41 42 42 42 42 43 43 43 44 45 45 45 45 46 47 47 47 48 49 48 48 47 47 47 47 47 47 46 45 45 44 42 42 41 41 41 40 40 39 39 38 38 38
40 41 42 42 42 43 43 44 44 44 44 44 45 45 45 46 46 48 48 48 48 47 46 46 46 45 44 43 42 41 39 39 38 38 38 38 39 39 38 37 37 36 36
40 41 41 41 42 42 42 43 43 43 43 43 43 44 44 45 45 45 45 46 46 45 44 44 44 42 41 39 38 38 37 36 37 37 36 36 36 36 35 35 35 35 33
40 40 41 41 41 41 41 42 43 43 43 43 43 43 43 44 44 44 44 43 43 43 42 41 40 39 37 36 36 35 34 34 34 34 34 34 34 34 34 34 34 33 33
39 39 40 40 40 40 41 42 42 42 42 42 42 42 42 42 42 42 41 39 39 39 38 36 36 34 33 33 33 33 32 32 32 32 32 32 32 32 32 31 31 32 32
39 39 39 39 40 40 41 41 41 42 42 41 41 41 41 39 39 39 38 37 36 35 33 31 30 30 30 30 30 30 30 30 31 30 30 30 30 29 29 29 29 29 29
39 39 39 39 40 40 40 40 41 41 40 40 39 39 38 37 36 35 34 33 32 30 29 28 27 26 27 28 28 29 29 30 29 28 28 28 27 27 27 27 27 28 29
39 39 39 39 39 39 39 39 39 39 38 38 37 36 35 34 33 32 30 29 28 27 26 25 24 23 24 25 26 27 27 27 26 25 25 25 24 24 24 25 25 26 27
39 39 39 38 38 38 38 38 37 36 36 35 35 34 33 32 31 30 28 27 25 24 23 22 21 21 21 22 23 23 24 24 24 24 24 23 22 23 23 23 24 24 25
38 38 38 38 37 37 36 36 35 34 33 32 32 31 30 29 28 27 25 23 22 21 20 19 19 19 20 20 20 20 20 20 21 21 22 22 22 22 22 22 23 23 23
37 37 37 36 36 35 34 34 33 32 31 30 29 28 27 26 24 23 21 19 19 19 18 18 18 18 18 18 18 18 18 18 18 19 19 20 20 20 21 21 21 22 21
35 35 35 35 34 33 33 32 31 30 29 28 27 26 25 23 22 20 18 18 17 17 17 17 17 17 17 17 18 17 17 16 17 17 18 18 19 19 20 20 20 20 20
33 33 33 33 32 31 30 30 28 27 26 25 24 23 22 21 19 18 17 16 16 16 16 16 16 16 16 17 17 16 15 16 16 16 16 17 18 19 19 19 20 20 20
31 30 30 30 29 28 27 26 24 24 23 22 21 20 19 18 16 16 15 15 15 15 15 15 15 15 15 15 14 13 13 14 14 14 15 16 17 17 18 19 19 19 19
29 29 28 27 25 24 23 23 22 21 21 20 19 18 17 16 15 14 13 13 12 13 13 13 14 13 13 13 12 12 12 12 12 12 13 14 15 15 16 16 16 16 16
26 26 25 24 23 22 21 20 20 19 19 18 17 16 15 14 14 13 12 12 13 12 12 13 13 12 12 12 11 11 11 11 11 11 12 12 12 13 13 13 13 14 14
24 23 22 22 21 20 20 19 18 18 17 16 15 14 14 14 13 13 13 13 13 13 12 12 12 12 12 11 11 11 11 11 11 11 11 11 11 12 12 13 13 13 13

GEFSGL_500_meanwind_222.txt.gz
Wind_Speed
44 45 46 47 48 48 49 50 50 49 50 50 51 51 52 53 53 54 53 53 53 54 54 54 55 55 56 56 56 55 55 56 56 54 54 54 55 55 56 56 57 56 56
45 46 47 47 48 48 49 49 49 50 51 51 52 52 53 53 53 53 53 53 53 54 54 55 55 56 55 54 55 55 55 55 55 54 52 53 54 55 56 55 55 55 55
46 46 47 47 48 48 49 50 50 50 51 51 52 52 52 53 53 53 52 53 53 53 54 54 55 55 55 54 54 54 54 54 54 53 52 52 53 54 55 55 55 55 54
45 46 46 47 47 48 49 50 50 50 51 51 52 52 53 53 53 53 53 53 53 53 53 53 53 53 53 53 53 53 53 53 53 53 52 52 52 53 53 53 53 54 53
45 45 46 46 47 48 49 49 50 51 51 51 52 53 53 53 53 53 53 53 53 52 52 51 51 52 53 53 53 52 53 53 52 52 52 52 51 51 52 52 52 52 51
44 45 45 46 47 48 48 49 50 50 51 51 51 51 52 52 53 53 53 52 52 51 50 50 50 51 52 53 52 52 52 52 51 51 51 51 50 50 50 50 50 51 50
44 45 45 46 47 47 48 48 49 49 49 49 50 50 51 51 51 52 52 51 50 49 49 50 50 51 52 52 51 51 51 51 50 50 50 49 49 49 49 48 48 48 48
44 45 46 47 47 47 47 47 48 48 49 49 49 50 50 51 51 50 50 48 48 48 49 49 50 50 51 51 51 50 49 49 49 50 49 47 47 46 47 46 46 45 44
44 45 46 46 45 45 45 46 47 47 47 47 49 49 49 48 48 48 48 47 47 48 48 49 49 49 49 50 49 49 48 48 48 48 46 45 44 44 44 44 43 42 41
43 44 44 44 44 44 45 45 45 45 45 46 47 47 47 46 46 46 46 46 46 46 46 47 48 48 48 47 47 47 47 47 46 45 44 44 43 42 41 41 40 39 38
42 43 43 43 43 43 43 43 43 43 45 45 45 45 45 45 45 45 45 45 45 44 44 45 45 46 45 45 45 45 45 44 43 42 41 40 39 38 37 37 37 36 36
42 42 42 42 42 42 42 42 42 43 44 44 43 43 43 43 43 43 44 44 45 44 44 44 44 43 42 42 42 42 41 40 39 37 36 36 35 35 34 34 33 33 32
41 41 41 41 41 41 41 41 42 42 43 42 42 42 42 43 43 43 44 44 43 44 44 44 42 41 40 39 38 37 37 36 35 35 34 34 33 33 32 32 31 30 30
40 40 40 40 40 40 41 41 41 41 42 41 41 41 41 42 42 42 43 42 42 42 42 41 39 38 36 36 35 35 34 33 32 31 31 31 30 30 31 31 29 28 27
38 39 39 39 39 39 40 40 40 41 41 41 40 41 41 41 41 42 42 41 41 40 39 36 35 35 35 34 33 32 31 30 29 29 29 29 29 29 29 29 28 27 27
37 37 37 38 39 39 40 40 40 40 41 41 41 41 41 41 41 40 40 39 38 37 36 34 33 33 33 32 30 29 28 28 27 27 27 27 27 26 27 27 27 26 26
35 36 37 38 38 39 39 40 40 41 41 42 41 41 41 40 40 39 38 36 35 34 33 32 31 30 29 28 27 26 26 25 26 26 25 25 25 25 26 25 25 25 25
35 36 37 38 38 38 39 39 39 39 39 40 40 40 40 39 38 37 35 33 32 32 31 29 28 27 26 25 24 24 24 24 24 24 23 24 24 24 24 23 23 23 22
36 37 37 37 37 38 38 38 38 38 38 38 38 38 37 36 34 33 32 31 30 29 28 27 25 24 23 23 23 22 22 22 22 23 23 23 23 22 21 21 21 20 20
37 37 37 37 37 37 37 37 37 37 37 37 36 35 33 32 31 31 30 29 28 27 26 24 23 22 22 21 20 20 21 21 21 21 21 21 20 19 18 18 18 18 19
35 35 36 36 36 36 36 36 36 36 36 35 34 33 31 30 29 29 28 27 26 25 24 23 22 21 21 20 19 19 20 20 20 19 18 17 17 16 15 15 16 16 17
35 35 35 35 35 35 35 36 35 34 34 33 31 30 29 28 27 26 26 25 24 23 22 21 20 20 19 19 19 19 19 18 17 16 16 15 15 14 14 14 14 15 15
34 34 34 34 34 34 34 34 33 32 31 30 28 27 27 26 25 24 23 22 21 20 20 20 19 18 18 17 17 17 17 16 15 15 14 13 13 13 13 14 14 14 14
33 33 33 33 33 33 32 30 29 28 27 27 26 25 25 23 22 22 21 20 20 19 19 18 18 17 17 17 17 16 16 15 14 13 12 12 12 12 12 12 13 13 14
31 31 31 30 30 29 28 27 26 25 25 24 23 23 22 21 21 20 19 19 18 18 17 17 16 16 16 16 16 15 14 14 13 12 11 11 11 10 11 11 11 11 11
29 28 28 27 26 25 24 24 23 23 22 22 21 20 20 20 20 19 18 17 16 15 14 14 15 15 15 14 13 12 12 12 12 11 10 10 10 9 8 8 8 8 8

GEFSGL_500_meanwind_228.txt.gz
Wind_Speed
42 43 43 44 44 45 45 46 47 47 48 49 51 51 52 53 53 54 54 54 55 55 55 55 55 55 55 55 56 56 57 57 58 56 56 55 55 56 56 56 57 57 57
42 42 42 43 44 44 46 47 47 48 48 50 50 51 52 52 53 53 54 54 54 54 53 54 54 54 54 55 55 56 56 56 57 56 55 54 54 55 55 55 56 57 57
42 42 43 43 44 45 46 46 47 47 49 49 50 51 51 52 52 53 54 54 53 53 53 53 53 53 54 55 55 55 55 55 55 55 53 53 54 54 54 55 55 56 57
42 42 43 43 44 45 46 46 46 47 48 49 50 50 51 52 53 54 54 53 53 53 53 53 53 53 53 53 53 53 53 54 54 53 52 52 53 53 54 54 54 55 55
42 43 43 44 45 45 46 46 47 48 49 49 50 50 51 52 52 53 53 53 53 53 52 52 52 52 51 52 52 52 52 52 51 52 52 51 51 51 51 52 52 53 53
42 43 44 44 45 45 46 46 47 48 49 49 50 50 51 51 52 52 52 52 52 52 51 51 51 51 51 51 51 51 51 51 51 51 51 51 50 51 51 51 50 51 51
42 43 43 44 45 45 46 46 47 48 48 49 50 50 51 51 52 52 52 52 51 51 50 50 50 51 50 50 50 50 51 51 51 51 50 50 50 50 50 49 49 49 48
41 42 43 44 45 46 47 47 48 48 48 49 49 50 50 50 51 51 51 50 49 49 49 50 50 50 50 50 50 50 50 51 51 51 51 50 50 49 49 49 48 47 46
41 43 43 44 45 45 46 47 47 48 48 49 49 49 49 49 49 49 49 49 49 49 50 50 50 50 49 50 49 49 48 48 48 48 49 48 48 49 48 47 46 45 43
41 42 43 44 44 45 45 46 46 47 47 48 48 47 47 47 48 48 49 48 48 49 49 49 49 48 48 48 47 47 46 45 45 44 45 45 45 45 44 43 42 42 40
41 42 42 43 43 44 44 45 45 45 45 45 45 46 46 47 47 47 48 48 48 47 47 47 46 46 46 46 46 45 44 43 43 43 43 42 42 41 40 40 39 38 36
41 41 41 42 42 43 43 43 43 43 43 43 44 44 44 45 46 46 46 46 46 45 45 45 45 45 44 44 44 43 43 43 42 42 41 40 38 37 37 36 35 35 34
40 40 40 40 41 41 41 41 41 41 41 42 42 43 43 43 44 44 44 43 43 44 44 44 43 43 42 42 42 41 41 41 40 39 37 36 35 34 33 33 33 33 32
38 38 39 39 39 39 39 39 39 40 41 41 41 41 42 42 42 42 42 42 42 43 43 42 42 42 41 40 40 39 39 38 37 35 33 32 32 32 32 31 30 29 29
37 37 37 37 37 37 38 38 39 39 40 39 39 40 41 41 41 41 41 41 41 41 41 41 41 40 39 39 38 38 37 36 34 32 30 30 29 29 29 29 27 27 26
35 35 35 36 36 37 37 37 38 38 38 38 39 39 40 40 40 39 39 40 40 40 40 40 38 38 38 37 37 36 35 34 32 31 29 28 28 28 27 27 26 26 24
34 34 34 35 35 36 36 37 37 37 38 38 39 39 39 38 38 38 39 39 39 39 38 37 37 36 35 35 34 33 32 31 29 28 28 27 27 26 25 25 25 23 22
33 33 34 34 34 35 35 36 37 37 37 38 38 37 37 37 37 37 38 39 39 38 37 36 35 34 33 33 32 31 29 28 27 26 26 25 24 23 23 23 23 21 20
33 33 34 34 34 35 35 35 36 36 36 37 36 36 36 36 37 37 38 38 37 36 35 34 32 31 31 30 30 28 27 25 25 24 23 23 23 22 22 21 21 20 18
33 33 34 34 35 35 35 36 36 36 36 35 35 35 35 36 36 36 37 36 35 34 33 31 30 30 29 28 27 26 25 23 22 21 21 20 20 20 20 19 18 17 16
33 33 33 34 34 34 35 35 35 35 34 34 34 34 35 35 35 35 35 34 32 31 30 29 28 28 27 26 25 24 22 21 21 20 20 19 18 18 18 17 16 16 15
32 32 32 33 33 34 34 34 34 33 33 32 33 33 33 33 33 33 31 30 29 28 27 26 26 26 25 24 23 22 21 20 20 19 18 18 17 17 16 16 15 14 13
30 31 31 32 33 33 33 33 32 31 31 30 31 31 31 31 30 29 28 27 26 26 25 25 24 23 22 21 19 18 17 17 17 16 16 16 16 15 15 14 13 12 11
30 30 30 31 31 31 31 30 30 30 29 29 29 29 28 27 26 26 25 25 24 23 22 22 21 20 19 18 17 16 16 15 14 14 14 13 13 13 12 11 10 9 9
28 28 29 29 29 29 29 29 28 28 28 27 27 26 25 25 24 24 23 22 21 20 20 20 19 18 17 16 15 15 15 14 14 13 12 12 11 10 9 9 8 8 8
26 27 27 27 28 28 28 27 27 26 26 26 25 24 24 23 23 22 21 20 19 19 18 18 17 16 15 14 14 14 13 13 12 11 10 10 9 8 8 7 7 7 8

GEFSGL_500_meanwind_234.txt.gz
Wind_Speed
44 44 44 44 45 46 47 47 48 48 49 49 49 49 50 50 51 52 52 53 53 53 54 55 55 56 56 57 57 57 57 58 59 57 57 56 56 56 57 57 57 57 57
44 44 44 45 46 46 47 47 48 49 49 49 50 50 50 50 51 52 52 52 53 53 54 55 55 55 56 56 56 56 57 57 58 58 56 56 56 57 58 58 58 58 57
44 44 45 46 46 47 47 48 49 49 49 49 49 49 50 50 51 52 52 52 53 54 54 54 54 54 55 55 56 56 57 57 58 58 56 56 57 57 58 58 57 57 56
44 44 45 46 47 47 48 48 48 48 48 48 48 49 49 50 51 52 52 52 52 53 54 54 54 54 54 55 55 56 56 56 57 57 56 56 57 57 57 56 55 55 54
43 44 45 46 47 47 48 48 47 47 47 48 48 48 49 50 51 52 52 52 53 53 53 53 53 54 54 54 55 55 55 56 56 56 56 56 55 55 54 54 53 53 53
43 44 45 46 46 47 47 47 47 47 47 47 47 48 50 50 50 51 51 52 52 52 52 52 52 53 53 54 55 55 55 56 56 56 56 55 54 53 52 52 52 51 50
43 44 45 46 46 46 46 46 46 47 47 47 48 49 49 50 50 51 51 51 51 51 51 51 51 52 52 53 54 54 55 56 56 56 55 54 52 52 52 50 51 51 50
43 44 45 45 46 46 46 47 47 47 48 48 48 48 49 49 49 50 51 51 51 51 51 51 51 51 52 53 54 54 55 55 55 54 53 52 51 50 50 50 49 48 48
43 44 45 46 46 45 45 46 47 47 47 47 48 48 49 49 49 50 50 50 50 50 50 51 52 52 53 54 54 54 54 53 52 51 51 50 49 48 48 48 47 47 45
44 44 45 45 45 45 45 46 46 47 47 47 47 47 48 48 48 48 48 49 49 49 50 51 52 53 53 53 53 52 52 51 50 50 49 47 46 46 46 46 45 44 42
43 43 43 43 43 44 44 45 46 46 46 46 46 46 46 46 46 46 47 48 49 49 50 50 51 51 51 50 50 50 50 49 48 47 45 45 44 44 45 45 43 42 40
42 42 42 42 42 43 44 44 43 43 44 44 44 44 45 45 46 46 47 48 49 49 49 50 50 49 49 49 49 48 48 46 45 44 43 43 43 43 42 41 40 38 37
41 41 41 41 41 41 42 41 42 42 42 43 42 42 43 44 45 45 45 46 47 47 48 49 48 47 47 46 47 46 44 43 42 42 41 41 41 41 39 37 36 36 35
40 40 40 40 40 40 40 40 40 41 41 41 42 42 42 43 44 44 44 44 45 46 46 45 45 45 44 44 44 43 42 41 41 40 39 39 39 39 37 36 34 34 33
38 38 38 38 38 38 38 38 38 39 39 40 40 40 41 41 42 43 43 44 44 44 43 42 42 42 42 42 42 41 40 40 40 40 38 37 37 36 35 34 33 32 31
36 36 36 36 36 36 36 36 37 37 37 38 39 39 40 41 41 41 42 42 42 41 41 40 40 40 40 40 40 39 39 39 39 38 37 36 35 34 32 32 31 30 29
35 35 34 34 34 35 34 34 35 36 37 38 38 38 39 39 40 41 41 41 40 40 40 40 40 40 40 39 38 37 37 37 37 36 35 34 33 32 30 29 29 28 27
34 34 33 33 33 33 33 34 35 36 36 37 38 38 39 39 40 40 39 39 39 39 40 40 39 39 38 37 36 35 35 35 34 33 33 32 31 30 29 28 27 26 25
33 33 33 33 33 33 33 34 35 35 36 36 37 38 38 39 39 38 38 38 38 39 39 38 38 37 36 35 34 34 34 33 32 30 30 29 29 28 27 27 25 24 22
33 33 33 33 33 33 34 34 35 35 35 36 36 36 37 36 36 36 37 37 37 37 37 37 36 35 34 34 33 33 32 30 29 28 28 28 27 26 26 25 23 22 20
32 32 33 33 33 33 34 34 34 34 35 35 35 35 35 34 34 35 36 36 35 35 35 34 34 33 32 32 31 30 29 28 27 27 27 26 25 24 23 22 21 19 18
31 32 32 32 32 32 32 33 33 33 34 34 34 34 33 33 33 34 34 34 34 33 33 33 32 30 30 30 29 27 26 26 25 25 24 23 22 22 21 20 19 17 16
30 31 31 31 31 31 32 32 32 33 33 33 33 32 32 33 33 33 33 32 32 32 31 30 29 28 27 26 25 24 24 24 23 23 22 21 20 20 19 18 17 15 14
29 29 29 30 30 31 31 31 32 32 32 32 31 31 31 31 31 31 30 30 29 29 28 27 26 26 25 24 23 22 22 22 21 20 19 19 18 18 17 16 15 13 11
27 28 29 29 29 29 30 30 29 29 29 28 28 28 28 28 28 28 28 27 27 26 25 25 24 24 23 22 22 21 20 20 19 19 18 18 17 16 15 14 13 11 9
27 27 27 27 27 27 27 27 26 26 26 26 26 26 27 27 26 26 25 24 24 23 23 22 22 22 21 20 20 19 18 18 18 17 17 16 15 14 13 12 11 9 7

GEFSGL_500_meanwind_240.txt.gz
Wind_Speed
43 43 43 43 44 44 44 44 45 45 45 46 47 48 48 49 50 51 51 52 52 52 53 54 54 54 55 55 56 57 57 58 58 56 55 55 55 55 56 58 59 59 60
42 43 43 43 44 44 44 45 45 46 46 47 48 49 49 50 51 51 52 52 53 54 54 55 54 54 55 56 57 57 56 56 57 56 55 54 55 56 57 58 60 60 60
41 42 42 43 44 44 44 45 45 46 47 48 48 50 50 51 51 52 52 52 53 53 54 54 54 55 55 56 56 55 55 55 56 56 55 55 56 57 58 59 60 60 60
41 41 42 43 44 44 45 45 46 47 48 48 49 50 50 51 51 51 51 51 52 53 53 54 54 54 54 55 55 55 55 55 55 56 56 56 56 57 58 57 56 56 56
41 41 41 42 44 44 45 46 47 48 49 49 49 50 50 50 50 51 51 51 52 52 53 53 53 53 53 53 53 53 54 55 55 56 56 57 57 56 56 56 55 54 54
42 42 43 43 44 44 45 46 48 48 49 49 49 49 49 49 50 51 51 51 52 52 52 52 51 51 51 52 52 53 54 55 56 55 56 56 56 56 55 55 54 53 53
42 43 43 44 44 44 46 47 47 48 48 47 48 49 49 50 50 51 51 52 52 52 51 50 50 50 50 51 51 53 54 55 55 55 55 55 54 54 54 54 53 53 53
43 43 44 44 45 45 45 45 45 46 47 47 48 48 49 50 50 50 50 50 50 50 49 49 49 49 50 50 51 52 52 53 54 54 54 53 53 53 53 52 51 51 51
42 43 44 44 44 45 45 45 45 46 46 47 47 47 48 49 49 49 49 49 49 48 48 49 50 50 50 51 51 51 52 52 53 52 52 51 51 51 51 51 50 49 49
42 43 43 44 45 45 45 45 45 46 46 46 46 46 47 47 47 48 48 47 47 47 48 49 49 50 50 51 52 52 52 51 50 49 49 49 49 49 49 49 48 49 48
41 42 42 43 44 44 45 45 45 46 45 45 45 45 46 46 45 46 46 46 46 46 47 47 48 49 50 51 51 50 49 48 47 47 47 47 47 47 47 47 47 48 47
41 42 43 43 44 44 44 44 45 45 45 44 44 44 44 44 44 45 45 45 45 45 46 46 47 48 49 49 48 48 47 46 45 45 45 45 45 45 45 45 46 45 44
41 42 42 41 42 43 43 43 43 43 43 42 41 41 41 42 43 43 43 44 45 45 45 46 46 47 47 46 46 45 45 44 44 44 44 44 44 44 43 43 43 42 41
40 40 40 40 41 41 41 41 41 41 41 40 39 40 40 41 42 42 43 44 44 45 44 44 45 44 44 44 44 43 43 43 43 43 43 43 42 42 42 41 40 39 37
39 39 39 39 39 39 39 39 39 39 39 38 38 39 39 40 40 40 41 41 42 42 42 42 43 42 42 42 42 41 42 42 42 43 42 41 41 40 39 39 38 37 35
37 37 37 37 38 38 38 38 38 38 38 38 39 39 39 38 38 38 39 40 40 41 40 40 40 41 40 40 40 41 41 42 42 42 41 40 39 38 37 37 36 35 33
36 36 35 36 36 37 37 36 36 37 38 38 38 37 37 37 37 38 38 38 39 39 39 39 40 40 40 40 40 40 40 40 41 40 39 38 37 36 35 35 34 32 30
34 34 34 34 35 35 35 35 35 35 36 36 36 36 36 36 36 36 37 37 37 37 37 38 39 38 38 38 38 38 38 38 38 38 37 36 35 34 34 33 31 30 29
33 33 33 34 34 34 34 34 34 34 34 34 34 34 34 34 35 35 35 35 35 36 37 37 37 37 37 37 37 36 36 36 36 35 34 33 33 32 31 30 29 28 27
32 32 33 33 33 33 33 33 32 32 32 33 32 32 32 32 33 34 33 34 34 35 36 36 36 36 36 36 35 35 35 34 34 33 32 31 31 30 29 28 27 27 26
31 31 31 31 31 31 31 30 30 31 30 30 30 30 30 31 32 32 33 33 34 34 35 35 34 34 34 34 34 34 33 32 31 30 30 30 28 28 27 26 26 26 25
29 29 29 29 29 29 29 29 29 29 28 28 29 29 30 31 32 32 33 33 33 34 34 34 33 33 32 32 31 31 30 29 29 29 28 27 26 26 25 25 25 24 23
28 28 28 29 29 29 28 29 29 28 28 28 29 30 31 31 31 32 32 33 33 33 32 31 31 31 30 29 29 28 28 27 27 26 25 25 24 24 23 23 23 22 20
26 26 27 27 27 27 27 28 28 28 28 29 30 30 31 31 31 31 32 31 31 31 30 29 29 28 27 26 26 26 25 24 24 23 23 22 22 22 21 21 21 20 18
26 26 26 26 26 26 27 27 27 27 27 28 29 29 29 30 29 29 29 28 28 27 27 26 26 25 24 24 23 23 22 22 22 22 21 21 20 20 19 19 19 17 15
26 26 26 26 26 26 26 26 26 26 27 27 27 27 27 26 26 26 26 25 25 24 24 23 23 23 23 22 22 22 21 21 21 20 19 19 18 18 18 17 16 14 11